BAW59 EGLL-FACT

Flight info

Callsign BAW59
Flight time 11h 6m
Altitude 33000
Route N0498F330 MODMI1J MODMI M185 MID L612 HAWKE UL612 VEULE DCT DEKOD DCT DISAK DCT DIRMO DCT ETAMO DCT ADEKA DCT MOKDI DCT MEN DCT AMLIR DCT FJR DCT OBLAD DCT KAMER UM998 CSO UA605 TARAT/N0498F350 UA605 DJA UB730 DIR UA607 FL UA403 UPATU/N0495F370 UA403 BZ DCT KSA UT943 IMVEX/N0491F380 UT943 UNLOK/N0494F370 UT943 VEDRY/N0488F380 UN185 OKLOK Q23 DUMDO DCT ERDAS ERDAS1B
Aircraft A35K/H-SBDE1E2E3GHIJ1J3J4J5J6M1M2P2RWXYZ/LB1D1

Departure

Time 2026-05-07 08:37
Airport London Heathrow Airport (EGLL)

Arrival

Time 2026-05-07 19:43
Airport Cape Town International Airport (FACT)
Time Latitude Longitude Altitude Speed Heading
2026-05-07 06:33 51.46980 -0.48017 92 ft 0 kts 270°
2026-05-07 08:26 51.46980 -0.47964 92 ft 4 kts 270°
2026-05-07 08:26 51.46980 -0.47949 92 ft 0 kts 270°
2026-05-07 08:27 51.46980 -0.47917 92 ft 3 kts 269°
2026-05-07 08:27 51.46986 -0.47882 92 ft 4 kts 219°
2026-05-07 08:27 51.47007 -0.47869 92 ft 3 kts 180°
2026-05-07 08:28 51.47034 -0.47869 93 ft 4 kts 180°
2026-05-07 08:28 51.47041 -0.47869 92 ft 0 kts 180°
2026-05-07 08:30 51.47036 -0.47869 92 ft 2 kts 179°
2026-05-07 08:30 51.47021 -0.47869 92 ft 3 kts 179°
2026-05-07 08:30 51.46985 -0.47868 92 ft 8 kts 180°
2026-05-07 08:31 51.46917 -0.47870 93 ft 11 kts 181°
2026-05-07 08:31 51.46841 -0.47868 92 ft 11 kts 178°
2026-05-07 08:31 51.46762 -0.47885 95 ft 11 kts 210°
2026-05-07 08:31 51.46743 -0.47995 93 ft 11 kts 270°
2026-05-07 08:32 51.46743 -0.48126 92 ft 12 kts 269°
2026-05-07 08:32 51.46743 -0.48268 92 ft 13 kts 270°
2026-05-07 08:32 51.46742 -0.48416 95 ft 14 kts 269°
2026-05-07 08:32 51.46739 -0.48576 93 ft 15 kts 268°
2026-05-07 08:33 51.46730 -0.48711 97 ft 10 kts 243°
2026-05-07 08:33 51.46672 -0.48745 95 ft 9 kts 184°
2026-05-07 08:33 51.46605 -0.48766 95 ft 9 kts 197°
2026-05-07 08:33 51.46602 -0.48767 96 ft 0 kts 197°
2026-05-07 08:34 51.46601 -0.48768 92 ft 1 kts 197°
2026-05-07 08:34 51.46571 -0.48778 93 ft 7 kts 190°
2026-05-07 08:34 51.46523 -0.48776 93 ft 7 kts 165°
2026-05-07 08:35 51.46486 -0.48723 96 ft 7 kts 118°
2026-05-07 08:35 51.46479 -0.48639 94 ft 8 kts 92°
2026-05-07 08:35 51.46479 -0.48605 94 ft 1 kts 90°
2026-05-07 08:35 51.46479 -0.48601 93 ft 0 kts 90°
2026-05-07 08:36 51.46479 -0.48526 92 ft 34 kts 90°
2026-05-07 08:36 51.46481 -0.47689 94 ft 113 kts 90°
2026-05-07 08:36 51.46486 -0.46046 97 ft 180 kts 90°
2026-05-07 08:36 51.46498 -0.43869 595 ft 203 kts 90°
2026-05-07 08:37 51.46245 -0.41645 1387 ft 200 kts 112°
2026-05-07 08:37 51.45589 -0.39660 1784 ft 213 kts 128°
2026-05-07 08:37 51.44345 -0.38230 1989 ft 232 kts 157°
2026-05-07 08:37 51.42782 -0.37335 2446 ft 243 kts 161°
2026-05-07 08:38 51.41155 -0.36509 3023 ft 248 kts 165°
2026-05-07 08:38 51.39426 -0.36258 3489 ft 255 kts 187°
2026-05-07 08:38 51.37740 -0.37123 4078 ft 255 kts 205°
2026-05-07 08:38 51.36135 -0.38362 4693 ft 257 kts 206°
2026-05-07 08:39 51.34520 -0.39645 5273 ft 260 kts 206°
2026-05-07 08:39 51.32887 -0.40928 5780 ft 263 kts 206°
2026-05-07 08:39 51.31240 -0.42216 5999 ft 264 kts 206°
2026-05-07 08:39 51.29583 -0.43523 6088 ft 265 kts 206°
2026-05-07 08:40 51.27922 -0.44830 6068 ft 267 kts 206°
2026-05-07 08:40 51.26262 -0.46147 6068 ft 266 kts 206°
2026-05-07 08:40 51.24603 -0.47476 6088 ft 266 kts 207°
2026-05-07 08:40 51.22949 -0.48800 6066 ft 266 kts 206°
2026-05-07 08:41 51.21283 -0.50110 6267 ft 268 kts 205°
2026-05-07 08:41 51.19593 -0.51395 6846 ft 270 kts 205°
2026-05-07 08:41 51.17891 -0.52679 7511 ft 272 kts 205°
2026-05-07 08:41 51.16198 -0.53960 8128 ft 274 kts 205°
2026-05-07 08:42 51.14441 -0.55300 8751 ft 278 kts 205°
2026-05-07 08:42 51.12687 -0.56646 9364 ft 282 kts 205°
2026-05-07 08:42 51.10906 -0.58019 9972 ft 286 kts 205°
2026-05-07 08:42 51.09114 -0.59399 10412 ft 296 kts 205°
2026-05-07 08:43 51.07121 -0.60523 10651 ft 313 kts 191°
2026-05-07 08:43 51.04900 -0.60681 10908 ft 328 kts 171°
2026-05-07 08:43 51.02692 -0.59531 11180 ft 343 kts 154°
2026-05-07 08:43 51.00558 -0.57654 11437 ft 358 kts 147°
2026-05-07 08:44 50.98450 -0.55410 11660 ft 372 kts 144°
2026-05-07 08:44 50.96313 -0.52976 12019 ft 382 kts 144°
2026-05-07 08:44 50.94143 -0.50493 12577 ft 387 kts 144°
2026-05-07 08:44 50.91933 -0.48012 13170 ft 390 kts 145°
2026-05-07 08:45 50.89691 -0.45553 13766 ft 393 kts 146°
2026-05-07 08:45 50.87418 -0.43106 14317 ft 396 kts 146°
2026-05-07 08:45 50.85117 -0.40656 14832 ft 400 kts 146°
2026-05-07 08:45 50.82796 -0.38199 15354 ft 402 kts 146°
2026-05-07 08:46 50.80459 -0.35735 15877 ft 405 kts 146°
2026-05-07 08:46 50.78132 -0.33286 16388 ft 408 kts 146°
2026-05-07 08:46 50.75730 -0.30758 16915 ft 411 kts 146°
2026-05-07 08:46 50.73369 -0.28274 17411 ft 414 kts 146°
2026-05-07 08:47 50.70954 -0.25733 17956 ft 417 kts 146°
2026-05-07 08:47 50.68533 -0.23187 18451 ft 420 kts 146°
2026-05-07 08:47 50.66086 -0.20617 18916 ft 424 kts 146°
2026-05-07 08:47 50.63623 -0.18033 19372 ft 427 kts 147°
2026-05-07 08:48 50.61138 -0.15432 19800 ft 431 kts 147°
2026-05-07 08:48 50.58621 -0.12800 20305 ft 434 kts 147°
2026-05-07 08:48 50.56101 -0.10170 20799 ft 437 kts 147°
2026-05-07 08:48 50.53559 -0.07519 21269 ft 440 kts 147°
2026-05-07 08:49 50.50997 -0.04850 21738 ft 443 kts 147°
2026-05-07 08:49 50.48420 -0.02169 22212 ft 446 kts 147°
2026-05-07 08:49 50.45820 0.00531 22652 ft 449 kts 147°
2026-05-07 08:49 50.43209 0.03247 23082 ft 453 kts 147°
2026-05-07 08:50 50.40567 0.05988 23537 ft 456 kts 147°
2026-05-07 08:50 50.37906 0.08741 23917 ft 460 kts 147°
2026-05-07 08:50 50.35262 0.11475 24314 ft 462 kts 147°
2026-05-07 08:50 50.32573 0.14251 24714 ft 465 kts 147°
2026-05-07 08:51 50.29858 0.17046 25086 ft 467 kts 147°
2026-05-07 08:51 50.27132 0.19847 25479 ft 470 kts 147°
2026-05-07 08:51 50.24390 0.22661 25852 ft 473 kts 147°
2026-05-07 08:51 50.21631 0.25491 26220 ft 475 kts 147°
2026-05-07 08:52 50.18863 0.28331 26588 ft 478 kts 147°
2026-05-07 08:52 50.16079 0.31196 26926 ft 481 kts 147°
2026-05-07 08:52 50.13273 0.34081 27283 ft 483 kts 147°
2026-05-07 08:52 50.10459 0.36971 27646 ft 486 kts 147°
2026-05-07 08:53 50.07628 0.39873 27977 ft 488 kts 147°
2026-05-07 08:53 50.04785 0.42784 28303 ft 490 kts 148°
2026-05-07 08:53 50.01933 0.45698 28613 ft 493 kts 148°
2026-05-07 08:53 49.99057 0.48632 28938 ft 494 kts 148°
2026-05-07 08:54 49.96175 0.51569 29218 ft 496 kts 148°
2026-05-07 08:54 49.93292 0.54502 29604 ft 496 kts 148°
2026-05-07 08:54 49.90441 0.57399 30041 ft 495 kts 148°
2026-05-07 08:54 49.87548 0.60337 30409 ft 494 kts 148°
2026-05-07 08:55 49.84680 0.63246 30727 ft 493 kts 148°
2026-05-07 08:55 49.81789 0.66122 31052 ft 493 kts 148°
2026-05-07 08:55 49.78879 0.68956 31355 ft 492 kts 149°
2026-05-07 08:55 49.75981 0.71755 31657 ft 491 kts 149°
2026-05-07 08:56 49.73084 0.74548 31923 ft 491 kts 149°
2026-05-07 08:56 49.70188 0.77341 32174 ft 491 kts 149°
2026-05-07 08:56 49.67332 0.80099 32437 ft 490 kts 149°
2026-05-07 08:56 49.64438 0.82896 32715 ft 489 kts 149°
2026-05-07 08:57 49.61552 0.85684 32966 ft 489 kts 149°
2026-05-07 08:57 49.58666 0.88470 33071 ft 492 kts 149°
2026-05-07 08:57 49.52828 0.94092 33073 ft 495 kts 149°
2026-05-07 08:58 49.46986 0.99699 33076 ft 494 kts 149°
2026-05-07 08:58 49.41142 1.05293 33076 ft 494 kts 149°
2026-05-07 08:59 49.35301 1.10868 33075 ft 494 kts 149°
2026-05-07 08:59 49.29449 1.16438 33068 ft 494 kts 149°
2026-05-07 09:00 49.23635 1.21956 33076 ft 494 kts 149°
2026-05-07 09:00 49.17777 1.27500 33074 ft 494 kts 149°
2026-05-07 09:01 49.11921 1.33026 33071 ft 494 kts 149°
2026-05-07 09:01 49.06062 1.38539 33068 ft 494 kts 149°
2026-05-07 09:02 49.00246 1.43997 33073 ft 494 kts 149°
2026-05-07 09:02 48.94384 1.49483 33072 ft 494 kts 149°
2026-05-07 09:03 48.88518 1.54958 33069 ft 494 kts 149°
2026-05-07 09:03 48.82646 1.60423 33063 ft 494 kts 149°
2026-05-07 09:04 48.76780 1.65867 33061 ft 494 kts 149°
2026-05-07 09:04 48.70953 1.71259 33061 ft 494 kts 149°
2026-05-07 09:05 48.65088 1.76672 33054 ft 494 kts 149°
2026-05-07 09:05 48.59198 1.82093 33043 ft 495 kts 149°
2026-05-07 09:06 48.53324 1.87484 33062 ft 494 kts 149°
2026-05-07 09:06 48.47435 1.92875 33041 ft 494 kts 149°
2026-05-07 09:07 48.41582 1.98217 33030 ft 494 kts 149°
2026-05-07 09:07 48.35698 2.03574 33047 ft 494 kts 149°
2026-05-07 09:08 48.29700 2.08627 33051 ft 494 kts 157°
2026-05-07 09:08 48.23124 2.11362 33054 ft 490 kts 171°
2026-05-07 09:09 48.16383 2.12882 33055 ft 489 kts 173°
2026-05-07 09:09 48.09596 2.13667 33068 ft 489 kts 178°
2026-05-07 09:10 48.02827 2.14056 33063 ft 489 kts 179°
2026-05-07 09:10 47.96027 2.14424 33067 ft 489 kts 178°
2026-05-07 09:11 47.90370 2.14744 33067 ft 489 kts 178°
2026-05-07 09:11 47.83567 2.15139 33081 ft 489 kts 178°
2026-05-07 09:12 47.76768 2.15537 33034 ft 489 kts 178°
2026-05-07 09:12 47.69962 2.15934 33044 ft 489 kts 178°
2026-05-07 09:13 47.63173 2.16328 33045 ft 489 kts 178°
2026-05-07 09:13 47.56373 2.16722 33039 ft 489 kts 179°
2026-05-07 09:14 47.49571 2.17116 33041 ft 489 kts 179°
2026-05-07 09:14 47.42811 2.17505 33048 ft 489 kts 179°
2026-05-07 09:15 47.36012 2.17895 33032 ft 489 kts 179°
2026-05-07 09:15 47.29215 2.18285 33046 ft 488 kts 179°
2026-05-07 09:16 47.22426 2.18673 33047 ft 488 kts 179°
2026-05-07 09:16 47.15685 2.19058 33036 ft 488 kts 179°
2026-05-07 09:17 47.08932 2.19993 33049 ft 489 kts 168°
2026-05-07 09:17 47.02444 2.23127 33047 ft 492 kts 160°
2026-05-07 09:18 46.96069 2.26859 33046 ft 493 kts 159°
2026-05-07 09:18 46.89750 2.30622 33046 ft 493 kts 159°
2026-05-07 09:19 46.83489 2.34712 33046 ft 494 kts 150°
2026-05-07 09:19 46.77624 2.40035 33046 ft 496 kts 148°
2026-05-07 09:20 46.71850 2.45556 33046 ft 497 kts 148°
2026-05-07 09:20 46.66068 2.51099 33048 ft 497 kts 148°
2026-05-07 09:21 46.60313 2.56570 33048 ft 497 kts 148°
2026-05-07 09:21 46.54518 2.62049 33047 ft 497 kts 148°
2026-05-07 09:22 46.48713 2.67519 33061 ft 497 kts 148°
2026-05-07 09:22 46.42904 2.72978 33043 ft 497 kts 148°
2026-05-07 09:23 46.37099 2.78421 33035 ft 497 kts 148°
2026-05-07 09:23 46.31284 2.83860 33052 ft 498 kts 149°
2026-05-07 09:24 46.25457 2.89297 33033 ft 499 kts 149°
2026-05-07 09:24 46.19620 2.94728 33048 ft 499 kts 149°
2026-05-07 09:25 46.13825 3.00107 33052 ft 499 kts 149°
2026-05-07 09:25 46.07986 3.05514 33046 ft 499 kts 149°
2026-05-07 09:26 46.02130 3.10921 33046 ft 499 kts 149°
2026-05-07 09:26 45.96106 3.15799 33046 ft 495 kts 160°
2026-05-07 09:27 45.89481 3.18064 33045 ft 487 kts 179°
2026-05-07 09:28 45.79334 3.18159 33046 ft 485 kts 184°
2026-05-07 09:28 45.72596 3.17980 33030 ft 484 kts 184°
2026-05-07 09:29 45.65858 3.17845 33046 ft 483 kts 183°
2026-05-07 09:29 45.59187 3.17747 33040 ft 483 kts 183°
2026-05-07 09:30 45.52464 3.17659 33035 ft 483 kts 183°
2026-05-07 09:30 45.45742 3.17571 33037 ft 483 kts 183°
2026-05-07 09:31 45.39028 3.17482 33036 ft 482 kts 183°
2026-05-07 09:31 45.32311 3.17394 33030 ft 482 kts 183°
2026-05-07 09:32 45.25598 3.17305 33032 ft 482 kts 183°
2026-05-07 09:32 45.18906 3.17218 33031 ft 481 kts 183°
2026-05-07 09:33 45.12205 3.17129 33023 ft 481 kts 184°
2026-05-07 09:33 45.05498 3.17038 33027 ft 481 kts 184°
2026-05-07 09:34 44.98804 3.16948 33020 ft 481 kts 184°
2026-05-07 09:34 44.92147 3.16868 33018 ft 481 kts 184°
2026-05-07 09:35 44.85445 3.16780 33020 ft 481 kts 184°
2026-05-07 09:35 44.78749 3.16689 33021 ft 481 kts 184°
2026-05-07 09:36 44.72058 3.16600 33014 ft 481 kts 184°
2026-05-07 09:36 44.65364 3.16512 33014 ft 481 kts 184°
2026-05-07 09:37 44.58664 3.16432 33019 ft 481 kts 184°
2026-05-07 09:37 44.51997 3.16520 33018 ft 481 kts 183°
2026-05-07 09:38 44.45307 3.17686 33013 ft 489 kts 168°
2026-05-07 09:38 44.39049 3.21654 33016 ft 500 kts 151°
2026-05-07 09:39 44.33223 3.27077 33005 ft 504 kts 149°
2026-05-07 09:39 44.27497 3.32633 33012 ft 505 kts 149°
2026-05-07 09:40 44.21716 3.38178 33010 ft 504 kts 149°
2026-05-07 09:40 44.15914 3.43668 33018 ft 504 kts 149°
2026-05-07 09:41 44.10094 3.49142 33001 ft 503 kts 149°
2026-05-07 09:41 44.04335 3.54541 33016 ft 502 kts 149°
2026-05-07 09:42 43.98526 3.59976 32998 ft 503 kts 150°
2026-05-07 09:42 43.92729 3.65387 33006 ft 501 kts 150°
2026-05-07 09:43 43.86944 3.70775 33010 ft 500 kts 150°
2026-05-07 09:43 43.81164 3.76153 33010 ft 500 kts 150°
2026-05-07 09:44 43.75417 3.81488 32996 ft 500 kts 150°
2026-05-07 09:44 43.69622 3.86853 33013 ft 501 kts 150°
2026-05-07 09:45 43.63815 3.92213 33012 ft 501 kts 150°
2026-05-07 09:45 43.57948 3.97401 33019 ft 498 kts 156°
2026-05-07 09:46 43.51723 4.01449 33019 ft 493 kts 160°
2026-05-07 09:46 43.45444 4.05242 33020 ft 492 kts 161°
2026-05-07 09:47 43.39159 4.08991 33020 ft 492 kts 161°
2026-05-07 09:47 43.33175 4.12571 33012 ft 492 kts 161°
2026-05-07 09:48 43.26928 4.16317 33015 ft 491 kts 160°
2026-05-07 09:48 43.20911 4.19921 33012 ft 491 kts 161°
2026-05-07 09:49 43.14646 4.23665 32990 ft 492 kts 161°
2026-05-07 09:49 43.08360 4.27410 33191 ft 490 kts 161°
2026-05-07 09:49 43.05254 4.29260 33692 ft 484 kts 161°
2026-05-07 09:50 43.02180 4.31092 34103 ft 479 kts 161°
2026-05-07 09:50 42.99168 4.32884 34324 ft 478 kts 161°
2026-05-07 09:50 42.96077 4.34718 34481 ft 478 kts 161°
2026-05-07 09:50 42.93026 4.36524 34638 ft 478 kts 161°
2026-05-07 09:51 42.89980 4.38325 34865 ft 476 kts 161°
2026-05-07 09:51 42.86981 4.40098 35002 ft 477 kts 161°
2026-05-07 09:51 42.83925 4.41901 35019 ft 479 kts 161°
2026-05-07 09:52 42.77767 4.45526 35018 ft 484 kts 161°
2026-05-07 09:52 42.71596 4.49157 35023 ft 483 kts 161°
2026-05-07 09:53 42.65430 4.52778 35024 ft 482 kts 161°
2026-05-07 09:53 42.59249 4.56398 35025 ft 482 kts 161°
2026-05-07 09:54 42.53123 4.59978 35027 ft 483 kts 161°
2026-05-07 09:54 42.46939 4.63584 35022 ft 482 kts 161°
2026-05-07 09:55 42.40778 4.67169 35026 ft 482 kts 161°
2026-05-07 09:55 42.34616 4.70746 35026 ft 482 kts 161°
2026-05-07 09:56 42.28491 4.74295 35021 ft 481 kts 161°
2026-05-07 09:56 42.22340 4.77851 35026 ft 480 kts 161°
2026-05-07 09:57 42.16195 4.81396 35026 ft 480 kts 161°
2026-05-07 09:57 42.10052 4.84933 35026 ft 480 kts 161°
2026-05-07 09:58 42.03905 4.88464 35026 ft 479 kts 162°
2026-05-07 09:58 41.97818 4.91953 35026 ft 478 kts 162°
2026-05-07 09:59 41.91695 4.95455 35008 ft 478 kts 162°
2026-05-07 09:59 41.85565 4.98954 35022 ft 480 kts 162°
2026-05-07 10:00 41.80422 5.01691 35028 ft 476 kts 167°
2026-05-07 10:00 41.74111 5.04331 35029 ft 474 kts 168°
2026-05-07 10:01 41.67788 5.06846 35028 ft 473 kts 168°
2026-05-07 10:01 41.61460 5.09343 35030 ft 474 kts 169°
2026-05-07 10:02 41.55133 5.11844 35016 ft 474 kts 169°
2026-05-07 10:02 41.48801 5.14350 35023 ft 474 kts 169°
2026-05-07 10:03 41.42517 5.16835 35014 ft 474 kts 169°
2026-05-07 10:03 41.36181 5.19334 35022 ft 475 kts 169°
2026-05-07 10:04 41.29844 5.21828 35019 ft 475 kts 169°
2026-05-07 10:04 41.23491 5.24323 35024 ft 475 kts 169°
2026-05-07 10:05 41.17160 5.26805 35017 ft 474 kts 169°
2026-05-07 10:05 41.10826 5.29283 35020 ft 474 kts 169°
2026-05-07 10:06 41.04525 5.31743 35018 ft 474 kts 169°
2026-05-07 10:06 40.98183 5.34213 35011 ft 474 kts 169°
2026-05-07 10:07 40.91846 5.36677 35018 ft 475 kts 169°
2026-05-07 10:07 40.85497 5.39140 35015 ft 475 kts 169°
2026-05-07 10:08 40.79188 5.41584 35014 ft 475 kts 169°
2026-05-07 10:08 40.72847 5.44035 35012 ft 474 kts 170°
2026-05-07 10:09 40.66517 5.46477 35012 ft 474 kts 170°
2026-05-07 10:09 40.60185 5.48914 35014 ft 474 kts 170°
2026-05-07 10:10 40.53846 5.51350 35011 ft 474 kts 170°
2026-05-07 10:10 40.47504 5.53782 35009 ft 474 kts 170°
2026-05-07 10:11 40.41175 5.56204 35007 ft 474 kts 170°
2026-05-07 10:11 40.34841 5.58623 35008 ft 474 kts 170°
2026-05-07 10:12 40.28534 5.61029 35005 ft 473 kts 170°
2026-05-07 10:12 40.22202 5.63438 35004 ft 473 kts 170°
2026-05-07 10:13 40.15870 5.65841 35002 ft 473 kts 170°
2026-05-07 10:13 40.09543 5.68240 35004 ft 473 kts 171°
2026-05-07 10:14 40.03223 5.70632 35003 ft 472 kts 171°
2026-05-07 10:14 39.96957 5.72996 34998 ft 473 kts 172°
2026-05-07 10:15 39.90632 5.75378 34998 ft 473 kts 172°
2026-05-07 10:15 39.84303 5.77761 34993 ft 472 kts 173°
2026-05-07 10:16 39.77998 5.80128 34992 ft 471 kts 173°
2026-05-07 10:16 39.71692 5.82489 34995 ft 471 kts 173°
2026-05-07 10:17 39.65385 5.84847 34965 ft 471 kts 173°
2026-05-07 10:17 39.59106 5.87196 34985 ft 467 kts 174°
2026-05-07 10:18 39.52870 5.89519 34990 ft 466 kts 174°
2026-05-07 10:18 39.46655 5.91826 34985 ft 466 kts 174°
2026-05-07 10:19 39.40423 5.94137 34987 ft 465 kts 174°
2026-05-07 10:19 39.34211 5.96440 34985 ft 463 kts 174°
2026-05-07 10:20 39.28016 5.98731 34985 ft 463 kts 174°
2026-05-07 10:20 39.21813 6.01020 34979 ft 463 kts 174°
2026-05-07 10:21 39.15613 6.03305 34977 ft 462 kts 175°
2026-05-07 10:21 39.09476 6.05564 34980 ft 461 kts 175°
2026-05-07 10:22 39.03300 6.07830 34977 ft 461 kts 175°
2026-05-07 10:22 38.97105 6.09596 34976 ft 453 kts 181°
2026-05-07 10:23 38.90886 6.10888 34976 ft 452 kts 182°
2026-05-07 10:23 38.84654 6.12107 34974 ft 452 kts 182°
2026-05-07 10:24 38.78467 6.13317 34975 ft 452 kts 182°
2026-05-07 10:24 38.72238 6.14545 34952 ft 452 kts 183°
2026-05-07 10:25 38.66033 6.15775 34969 ft 450 kts 183°
2026-05-07 10:25 38.59847 6.16997 34969 ft 449 kts 183°
2026-05-07 10:26 38.53663 6.18213 34966 ft 449 kts 183°
2026-05-07 10:26 38.47492 6.19427 34956 ft 447 kts 183°
2026-05-07 10:27 38.41425 6.20627 34963 ft 441 kts 183°
2026-05-07 10:27 38.35363 6.21813 34965 ft 440 kts 183°
2026-05-07 10:28 38.29303 6.22992 34964 ft 440 kts 183°
2026-05-07 10:28 38.23236 6.24174 34963 ft 440 kts 183°
2026-05-07 10:29 38.17175 6.25356 34959 ft 440 kts 183°
2026-05-07 10:29 38.11122 6.26534 34959 ft 440 kts 183°
2026-05-07 10:30 38.02077 6.28291 34924 ft 440 kts 183°
2026-05-07 10:30 37.96040 6.29464 34963 ft 437 kts 183°
2026-05-07 10:31 37.90031 6.30628 34950 ft 436 kts 183°
2026-05-07 10:31 37.84030 6.31785 34954 ft 436 kts 184°
2026-05-07 10:32 37.78027 6.32941 34924 ft 436 kts 183°
2026-05-07 10:32 37.72038 6.34095 34949 ft 435 kts 183°
2026-05-07 10:33 37.66061 6.35244 34946 ft 434 kts 183°
2026-05-07 10:33 37.60090 6.36389 34939 ft 434 kts 183°
2026-05-07 10:34 37.54138 6.37528 34915 ft 434 kts 183°
2026-05-07 10:34 37.48176 6.38670 34944 ft 433 kts 183°
2026-05-07 10:35 37.42229 6.39807 34944 ft 432 kts 183°
2026-05-07 10:35 37.36280 6.40940 34944 ft 432 kts 183°
2026-05-07 10:36 37.30338 6.42070 34941 ft 432 kts 183°
2026-05-07 10:36 37.24428 6.43193 34938 ft 432 kts 183°
2026-05-07 10:37 37.18488 6.44320 34934 ft 432 kts 183°
2026-05-07 10:37 37.12546 6.45446 34931 ft 432 kts 183°
2026-05-07 10:38 37.06597 6.46572 34949 ft 432 kts 183°
2026-05-07 10:38 37.00627 6.47696 34936 ft 437 kts 182°
2026-05-07 10:39 36.94602 6.48827 34929 ft 438 kts 182°
2026-05-07 10:39 36.88576 6.49965 34936 ft 438 kts 182°
2026-05-07 10:40 36.82594 6.51095 34928 ft 437 kts 182°
2026-05-07 10:40 36.76555 6.52226 34931 ft 439 kts 182°
2026-05-07 10:41 36.70515 6.53356 34925 ft 438 kts 182°
2026-05-07 10:41 36.64486 6.54485 34937 ft 438 kts 182°
2026-05-07 10:42 36.58453 6.55612 34932 ft 438 kts 182°
2026-05-07 10:42 36.52428 6.56735 34946 ft 438 kts 182°
2026-05-07 10:43 36.46443 6.57851 34958 ft 437 kts 182°
2026-05-07 10:43 36.40414 6.58971 34962 ft 438 kts 182°
2026-05-07 10:44 36.34380 6.60090 34965 ft 438 kts 182°
2026-05-07 10:44 36.28346 6.61210 34963 ft 439 kts 181°
2026-05-07 10:45 36.22340 6.62640 34966 ft 445 kts 178°
2026-05-07 10:45 36.16289 6.64291 34964 ft 445 kts 178°
2026-05-07 10:46 36.10229 6.65904 34957 ft 445 kts 179°
2026-05-07 10:46 36.04166 6.67465 34945 ft 444 kts 179°
2026-05-07 10:47 35.98088 6.69006 34952 ft 445 kts 179°
2026-05-07 10:47 35.92048 6.70536 34927 ft 446 kts 179°
2026-05-07 10:48 35.85969 6.72078 34940 ft 446 kts 179°
2026-05-07 10:48 35.79885 6.73620 34949 ft 446 kts 179°
2026-05-07 10:49 35.73809 6.75157 34938 ft 446 kts 179°
2026-05-07 10:49 35.67732 6.76692 34936 ft 446 kts 179°
2026-05-07 10:50 35.62666 6.77964 34927 ft 446 kts 179°
2026-05-07 10:50 35.56583 6.79498 34937 ft 446 kts 179°
2026-05-07 10:51 35.50477 6.81032 34933 ft 448 kts 178°
2026-05-07 10:51 35.44356 6.82567 34937 ft 449 kts 178°
2026-05-07 10:52 35.38270 6.84095 34931 ft 449 kts 178°
2026-05-07 10:52 35.32130 6.85632 34926 ft 453 kts 178°
2026-05-07 10:53 35.25922 6.87176 34929 ft 456 kts 177°
2026-05-07 10:53 35.19700 6.88731 34929 ft 456 kts 177°
2026-05-07 10:54 35.13482 6.90284 34907 ft 456 kts 177°
2026-05-07 10:54 35.07260 6.91831 34907 ft 456 kts 177°
2026-05-07 10:55 35.01043 6.93374 34893 ft 457 kts 177°
2026-05-07 10:55 34.94843 6.94909 34894 ft 457 kts 177°
2026-05-07 10:56 34.88612 6.96452 34878 ft 457 kts 177°
2026-05-07 10:56 34.82377 6.97994 34866 ft 457 kts 177°
2026-05-07 10:57 34.76152 6.99540 34860 ft 456 kts 177°
2026-05-07 10:57 34.69972 7.01114 34858 ft 453 kts 177°
2026-05-07 10:58 34.63846 7.02670 34856 ft 452 kts 177°
2026-05-07 10:58 34.57681 7.04228 34853 ft 452 kts 177°
2026-05-07 10:59 34.51521 7.05779 34835 ft 452 kts 177°
2026-05-07 10:59 34.45376 7.07326 34849 ft 450 kts 177°
2026-05-07 11:00 34.39242 7.08871 34842 ft 450 kts 177°
2026-05-07 11:00 34.33110 7.10408 34843 ft 450 kts 177°
2026-05-07 11:01 34.26983 7.11941 34845 ft 450 kts 177°
2026-05-07 11:01 34.20842 7.13472 34844 ft 451 kts 176°
2026-05-07 11:02 34.14715 7.15003 34853 ft 451 kts 176°
2026-05-07 11:02 34.08563 7.16539 34851 ft 451 kts 176°
2026-05-07 11:03 34.02403 7.18074 34850 ft 451 kts 176°
2026-05-07 11:03 33.96231 7.19606 34859 ft 455 kts 175°
2026-05-07 11:04 33.89977 7.21155 34858 ft 459 kts 175°
2026-05-07 11:04 33.83764 7.22699 34853 ft 458 kts 175°
2026-05-07 11:05 33.77522 7.24247 34856 ft 458 kts 175°
2026-05-07 11:05 33.71270 7.25792 34854 ft 460 kts 175°
2026-05-07 11:06 33.64949 7.27346 34856 ft 467 kts 175°
2026-05-07 11:06 33.58555 7.28922 34855 ft 469 kts 175°
2026-05-07 11:07 33.52167 7.30498 34862 ft 469 kts 175°
2026-05-07 11:07 33.45774 7.32072 34846 ft 469 kts 175°
2026-05-07 11:08 33.39407 7.33633 34862 ft 470 kts 175°
2026-05-07 11:08 33.32993 7.35203 34862 ft 470 kts 175°
2026-05-07 11:09 33.26579 7.36773 34862 ft 470 kts 175°
2026-05-07 11:09 33.20173 7.38338 34856 ft 470 kts 175°
2026-05-07 11:10 33.13762 7.39901 34856 ft 470 kts 175°
2026-05-07 11:10 33.07353 7.41461 34856 ft 470 kts 176°
2026-05-07 11:11 33.00946 7.43019 34856 ft 470 kts 175°
2026-05-07 11:11 32.94591 7.44562 34857 ft 469 kts 175°
2026-05-07 11:12 32.88179 7.46117 34853 ft 468 kts 176°
2026-05-07 11:12 32.81804 7.47660 34850 ft 467 kts 176°
2026-05-07 11:13 32.75472 7.49190 34850 ft 467 kts 176°
2026-05-07 11:13 32.69103 7.50726 34851 ft 467 kts 176°
2026-05-07 11:14 32.62735 7.52261 34847 ft 467 kts 176°
2026-05-07 11:14 32.56382 7.53791 34851 ft 466 kts 176°
2026-05-07 11:15 32.50022 7.55319 34853 ft 466 kts 176°
2026-05-07 11:15 32.43657 7.56846 34854 ft 466 kts 176°
2026-05-07 11:16 32.37299 7.58368 34859 ft 466 kts 176°
2026-05-07 11:16 32.30929 7.59890 34852 ft 467 kts 176°
2026-05-07 11:17 32.24553 7.61414 34853 ft 467 kts 176°
2026-05-07 11:17 32.18178 7.62937 34855 ft 467 kts 176°
2026-05-07 11:18 32.11849 7.64445 34858 ft 467 kts 176°
2026-05-07 11:18 32.05465 7.65962 34856 ft 468 kts 175°
2026-05-07 11:19 31.99083 7.67477 34856 ft 468 kts 175°
2026-05-07 11:19 31.92698 7.68993 34858 ft 468 kts 175°
2026-05-07 11:20 31.86317 7.70505 34861 ft 468 kts 175°
2026-05-07 11:20 31.79932 7.72014 34865 ft 469 kts 175°
2026-05-07 11:21 31.73556 7.73522 34865 ft 471 kts 174°
2026-05-07 11:21 31.67131 7.75076 34864 ft 471 kts 174°
2026-05-07 11:22 31.60715 7.76636 34867 ft 471 kts 174°
2026-05-07 11:22 31.54292 7.78191 34858 ft 471 kts 174°
2026-05-07 11:23 31.47838 7.79744 34873 ft 475 kts 174°
2026-05-07 11:23 31.41357 7.81302 34872 ft 475 kts 174°
2026-05-07 11:24 31.34870 7.82862 34873 ft 475 kts 174°
2026-05-07 11:24 31.28395 7.84417 34869 ft 475 kts 174°
2026-05-07 11:25 31.21920 7.85965 34879 ft 481 kts 174°
2026-05-07 11:25 31.15346 7.87535 34879 ft 482 kts 174°
2026-05-07 11:26 31.08775 7.89107 34879 ft 482 kts 174°
2026-05-07 11:26 31.02199 7.90677 34878 ft 482 kts 174°
2026-05-07 11:27 30.95624 7.92243 34878 ft 484 kts 174°
2026-05-07 11:27 30.89008 7.93815 34885 ft 486 kts 174°
2026-05-07 11:28 30.82370 7.95392 34883 ft 486 kts 174°
2026-05-07 11:28 30.75788 7.96953 34878 ft 486 kts 174°
2026-05-07 11:29 30.69138 7.98528 34877 ft 489 kts 174°
2026-05-07 11:29 30.62455 8.00107 34884 ft 490 kts 174°
2026-05-07 11:30 30.55768 8.01687 34885 ft 491 kts 174°
2026-05-07 11:30 30.49066 8.03270 34884 ft 491 kts 174°
2026-05-07 11:31 30.42372 8.04850 34885 ft 490 kts 174°
2026-05-07 11:31 30.35726 8.06412 34884 ft 490 kts 174°
2026-05-07 11:32 30.25682 8.08766 34883 ft 491 kts 174°
2026-05-07 11:33 30.18983 8.10334 34885 ft 491 kts 174°
2026-05-07 11:33 30.12294 8.11902 34875 ft 491 kts 174°
2026-05-07 11:34 30.05590 8.13468 34889 ft 492 kts 174°
2026-05-07 11:34 29.98914 8.15046 34882 ft 491 kts 174°
2026-05-07 11:35 29.92213 8.16647 34885 ft 491 kts 174°
2026-05-07 11:35 29.85499 8.18246 34864 ft 492 kts 174°
2026-05-07 11:36 29.78799 8.19834 34885 ft 491 kts 174°
2026-05-07 11:36 29.72097 8.21418 34888 ft 491 kts 174°
2026-05-07 11:37 29.65445 8.22988 34889 ft 491 kts 174°
2026-05-07 11:37 29.58755 8.24566 34890 ft 491 kts 174°
2026-05-07 11:38 29.52057 8.26146 34882 ft 490 kts 174°
2026-05-07 11:38 29.46500 8.27454 34883 ft 490 kts 174°
2026-05-07 11:39 29.39814 8.29024 34884 ft 490 kts 174°
2026-05-07 11:39 29.33125 8.30594 34885 ft 490 kts 174°
2026-05-07 11:40 29.26482 8.32150 34878 ft 490 kts 175°
2026-05-07 11:40 29.19809 8.33712 34886 ft 489 kts 175°
2026-05-07 11:41 29.13130 8.35275 34887 ft 489 kts 175°
2026-05-07 11:41 29.06456 8.36835 34886 ft 488 kts 175°
2026-05-07 11:42 28.99796 8.38388 34886 ft 489 kts 175°
2026-05-07 11:42 28.93168 8.39930 34888 ft 490 kts 175°
2026-05-07 11:43 28.86491 8.41480 34890 ft 490 kts 175°
2026-05-07 11:43 28.79812 8.43030 34890 ft 490 kts 175°
2026-05-07 11:44 28.73129 8.44579 34889 ft 490 kts 175°
2026-05-07 11:44 28.66432 8.46131 34887 ft 490 kts 175°
2026-05-07 11:45 28.59730 8.47681 34889 ft 491 kts 175°
2026-05-07 11:45 28.53025 8.49230 34889 ft 491 kts 175°
2026-05-07 11:46 28.46351 8.50771 34887 ft 491 kts 175°
2026-05-07 11:46 28.39647 8.52316 34858 ft 491 kts 175°
2026-05-07 11:47 28.32932 8.53860 34884 ft 494 kts 175°
2026-05-07 11:47 28.26192 8.55408 34880 ft 494 kts 175°
2026-05-07 11:48 28.19479 8.56949 34881 ft 494 kts 175°
2026-05-07 11:48 28.12741 8.58495 34876 ft 494 kts 176°
2026-05-07 11:49 28.05995 8.60044 34869 ft 494 kts 176°
2026-05-07 11:49 27.99259 8.61606 34876 ft 493 kts 176°
2026-05-07 11:50 27.92531 8.63167 34875 ft 493 kts 176°
2026-05-07 11:50 27.85801 8.64723 34862 ft 493 kts 176°
2026-05-07 11:51 27.79071 8.66276 34839 ft 493 kts 176°
2026-05-07 11:51 27.72370 8.67820 34859 ft 494 kts 176°
2026-05-07 11:52 27.65628 8.69373 34858 ft 495 kts 176°
2026-05-07 11:52 27.58877 8.70926 34859 ft 495 kts 176°
2026-05-07 11:53 27.52127 8.72476 34852 ft 495 kts 175°
2026-05-07 11:53 27.45369 8.74026 34858 ft 495 kts 175°
2026-05-07 11:54 27.38612 8.75572 34842 ft 495 kts 175°
2026-05-07 11:54 27.31849 8.77120 34844 ft 495 kts 175°
2026-05-07 11:55 27.25132 8.78655 34850 ft 495 kts 175°
2026-05-07 11:55 27.18374 8.80197 34825 ft 495 kts 176°
2026-05-07 11:56 27.11590 8.81742 34837 ft 497 kts 176°
2026-05-07 11:56 27.04806 8.83286 34836 ft 497 kts 176°
2026-05-07 11:57 26.98022 8.84829 34850 ft 497 kts 176°
2026-05-07 11:57 26.91234 8.86383 34868 ft 498 kts 176°
2026-05-07 11:58 26.84440 8.87942 34874 ft 500 kts 176°
2026-05-07 11:58 26.81077 8.88712 35058 ft 499 kts 176°
2026-05-07 11:58 26.77693 8.89489 35447 ft 494 kts 176°
2026-05-07 11:58 26.74331 8.90263 35749 ft 490 kts 176°
2026-05-07 11:59 26.70996 8.91027 35923 ft 489 kts 176°
2026-05-07 11:59 26.67660 8.91786 36110 ft 488 kts 176°
2026-05-07 11:59 26.64329 8.92543 36279 ft 487 kts 177°
2026-05-07 11:59 26.61004 8.93297 36446 ft 487 kts 177°
2026-05-07 12:00 26.57719 8.94043 36575 ft 486 kts 177°
2026-05-07 12:00 26.51081 8.95549 36786 ft 487 kts 177°
2026-05-07 12:01 26.44406 8.97061 36842 ft 491 kts 177°
2026-05-07 12:01 26.37677 8.98587 36836 ft 493 kts 177°
2026-05-07 12:02 26.30952 9.00117 36853 ft 492 kts 176°
2026-05-07 12:02 26.24238 9.01699 36845 ft 494 kts 175°
2026-05-07 12:03 26.17506 9.03280 36850 ft 494 kts 175°
2026-05-07 12:03 26.10808 9.04815 36850 ft 494 kts 176°
2026-05-07 12:04 26.04073 9.06334 36843 ft 494 kts 176°
2026-05-07 12:04 25.97336 9.07851 36845 ft 494 kts 176°
2026-05-07 12:05 25.90592 9.09380 36814 ft 495 kts 175°
2026-05-07 12:05 25.83815 9.10918 36820 ft 499 kts 175°
2026-05-07 12:06 25.77054 9.12453 36816 ft 499 kts 175°
2026-05-07 12:06 25.70257 9.13992 36818 ft 498 kts 175°
2026-05-07 12:07 25.63453 9.15532 36815 ft 499 kts 175°
2026-05-07 12:07 25.56647 9.17072 36834 ft 499 kts 175°
2026-05-07 12:08 25.49838 9.18609 36825 ft 499 kts 175°
2026-05-07 12:08 25.43032 9.20143 36844 ft 499 kts 175°
2026-05-07 12:09 25.36207 9.21678 36848 ft 499 kts 175°
2026-05-07 12:09 25.29441 9.23198 36866 ft 500 kts 175°
2026-05-07 12:10 25.22607 9.24732 36872 ft 501 kts 175°
2026-05-07 12:10 25.15753 9.26271 36873 ft 500 kts 175°
2026-05-07 12:11 25.08969 9.27792 36877 ft 500 kts 175°
2026-05-07 12:11 25.02133 9.29322 36863 ft 500 kts 175°
2026-05-07 12:12 24.95287 9.30851 36886 ft 502 kts 175°
2026-05-07 12:12 24.88425 9.32384 36883 ft 502 kts 175°
2026-05-07 12:13 24.81578 9.33912 36875 ft 502 kts 175°
2026-05-07 12:13 24.74765 9.35429 36876 ft 503 kts 175°
2026-05-07 12:14 24.67910 9.36953 36862 ft 503 kts 175°
2026-05-07 12:14 24.61044 9.38481 36866 ft 503 kts 175°
2026-05-07 12:15 24.54184 9.40006 36942 ft 503 kts 175°
2026-05-07 12:15 24.47318 9.41529 36989 ft 503 kts 175°
2026-05-07 12:16 24.40462 9.43048 37034 ft 503 kts 175°
2026-05-07 12:16 24.33632 9.44559 37050 ft 503 kts 175°
2026-05-07 12:17 24.26917 9.46974 37050 ft 518 kts 158°
2026-05-07 12:17 24.20544 9.50809 37038 ft 526 kts 155°
2026-05-07 12:18 24.14216 9.54917 36989 ft 529 kts 154°
2026-05-07 12:18 24.07922 9.59012 36924 ft 528 kts 154°
2026-05-07 12:19 24.01583 9.63088 36881 ft 529 kts 155°
2026-05-07 12:19 23.95222 9.67150 36846 ft 529 kts 155°
2026-05-07 12:20 23.88853 9.71209 36853 ft 529 kts 155°
2026-05-07 12:20 23.82530 9.75235 36854 ft 529 kts 155°
2026-05-07 12:21 23.76162 9.79287 36845 ft 529 kts 155°
2026-05-07 12:21 23.69805 9.83327 36845 ft 529 kts 155°
2026-05-07 12:22 23.63424 9.87377 36848 ft 531 kts 154°
2026-05-07 12:22 23.57036 9.91428 36848 ft 531 kts 154°
2026-05-07 12:23 23.50646 9.95477 36840 ft 531 kts 154°
2026-05-07 12:23 23.44256 9.99520 36845 ft 531 kts 154°
2026-05-07 12:24 23.37874 10.03553 36839 ft 531 kts 154°
2026-05-07 12:24 23.31525 10.07561 36840 ft 531 kts 154°
2026-05-07 12:25 23.25120 10.11600 36837 ft 531 kts 154°
2026-05-07 12:25 23.18724 10.15629 36843 ft 531 kts 154°
2026-05-07 12:26 23.12331 10.19651 36842 ft 531 kts 154°
2026-05-07 12:26 23.05918 10.23680 36844 ft 532 kts 154°
2026-05-07 12:27 22.99544 10.27682 36838 ft 532 kts 154°
2026-05-07 12:27 22.93127 10.31707 36841 ft 532 kts 154°
2026-05-07 12:28 22.87750 10.35075 36840 ft 532 kts 154°
2026-05-07 12:28 22.81338 10.39088 36841 ft 532 kts 154°
2026-05-07 12:29 22.74965 10.43071 36830 ft 532 kts 154°
2026-05-07 12:29 22.68560 10.47071 36840 ft 531 kts 154°
2026-05-07 12:30 22.62161 10.51066 36841 ft 531 kts 154°
2026-05-07 12:30 22.55836 10.55248 36840 ft 533 kts 152°
2026-05-07 12:31 22.49558 10.59527 36839 ft 534 kts 152°
2026-05-07 12:31 22.43251 10.63793 36836 ft 534 kts 152°
2026-05-07 12:32 22.36942 10.68022 36838 ft 533 kts 152°
2026-05-07 12:32 22.30673 10.72209 36838 ft 532 kts 152°
2026-05-07 12:33 22.21202 10.78524 36831 ft 532 kts 152°
2026-05-07 12:33 22.14896 10.82724 36833 ft 532 kts 152°
2026-05-07 12:34 22.08596 10.86917 36821 ft 532 kts 152°
2026-05-07 12:34 22.02342 10.91075 36831 ft 531 kts 152°
2026-05-07 12:35 21.96048 10.95255 36831 ft 531 kts 152°
2026-05-07 12:35 21.89742 10.99438 36823 ft 531 kts 152°
2026-05-07 12:36 21.83440 11.03615 36826 ft 531 kts 152°
2026-05-07 12:36 21.77139 11.07787 36823 ft 531 kts 152°
2026-05-07 12:37 21.70871 11.11932 36823 ft 531 kts 152°
2026-05-07 12:37 21.64569 11.16095 36823 ft 531 kts 152°
2026-05-07 12:38 21.58271 11.20252 36815 ft 531 kts 152°
2026-05-07 12:38 21.51973 11.24404 36820 ft 531 kts 152°
2026-05-07 12:39 21.45675 11.28553 36819 ft 531 kts 152°
2026-05-07 12:39 21.39406 11.32676 36810 ft 531 kts 151°
2026-05-07 12:40 21.33095 11.36823 36817 ft 532 kts 151°
2026-05-07 12:40 21.26775 11.40973 36815 ft 532 kts 151°
2026-05-07 12:41 21.20451 11.45122 36810 ft 532 kts 151°
2026-05-07 12:41 21.14135 11.49261 36809 ft 532 kts 151°
2026-05-07 12:42 21.07811 11.53402 36818 ft 532 kts 151°
2026-05-07 12:42 21.01527 11.57513 36818 ft 532 kts 151°
2026-05-07 12:43 20.95206 11.61643 36809 ft 532 kts 151°
2026-05-07 12:43 20.88881 11.65772 36812 ft 532 kts 151°
2026-05-07 12:44 20.82556 11.69896 36811 ft 533 kts 151°
2026-05-07 12:44 20.76215 11.74027 36809 ft 534 kts 151°
2026-05-07 12:45 20.69901 11.78136 36805 ft 535 kts 151°
2026-05-07 12:45 20.63525 11.82282 36805 ft 536 kts 151°
2026-05-07 12:46 20.57145 11.86427 36807 ft 536 kts 151°
2026-05-07 12:46 20.50759 11.90571 36809 ft 536 kts 151°
2026-05-07 12:47 20.44411 11.94684 36809 ft 536 kts 151°
2026-05-07 12:47 20.38033 11.98812 36801 ft 536 kts 151°
2026-05-07 12:48 20.31657 12.02934 36800 ft 536 kts 151°
2026-05-07 12:48 20.25259 12.07067 36809 ft 537 kts 150°
2026-05-07 12:49 20.18852 12.11202 36810 ft 538 kts 150°
2026-05-07 12:49 20.12450 12.15331 36812 ft 538 kts 150°
2026-05-07 12:50 20.06036 12.19463 36813 ft 538 kts 150°
2026-05-07 12:50 19.99622 12.23590 36810 ft 538 kts 150°
2026-05-07 12:51 19.93209 12.27714 36813 ft 538 kts 150°
2026-05-07 12:51 19.86838 12.31807 36815 ft 538 kts 150°
2026-05-07 12:52 19.80414 12.35928 36811 ft 538 kts 150°
2026-05-07 12:52 19.74000 12.40040 36808 ft 538 kts 150°
2026-05-07 12:53 19.67589 12.44145 36809 ft 539 kts 150°
2026-05-07 12:53 19.61143 12.48269 36815 ft 540 kts 150°
2026-05-07 12:54 19.54744 12.52361 36815 ft 540 kts 150°
2026-05-07 12:54 19.48309 12.56471 36820 ft 540 kts 150°
2026-05-07 12:55 19.41868 12.60581 36821 ft 540 kts 150°
2026-05-07 12:55 19.35423 12.64689 36806 ft 540 kts 150°
2026-05-07 12:56 19.28979 12.68793 36814 ft 541 kts 150°
2026-05-07 12:56 19.22569 12.72872 36815 ft 541 kts 150°
2026-05-07 12:57 19.16115 12.76975 36816 ft 541 kts 150°
2026-05-07 12:57 19.09651 12.81079 36818 ft 542 kts 150°
2026-05-07 12:58 19.03179 12.85186 36820 ft 543 kts 150°
2026-05-07 12:58 18.96472 12.88779 36825 ft 539 kts 162°
2026-05-07 12:59 18.89374 12.91285 36821 ft 537 kts 165°
2026-05-07 12:59 18.82241 12.93601 36823 ft 536 kts 165°
2026-05-07 13:00 18.75116 12.95892 36827 ft 536 kts 165°
2026-05-07 13:00 18.68026 12.98192 36828 ft 536 kts 165°
2026-05-07 13:01 18.60897 13.00515 36823 ft 535 kts 165°
2026-05-07 13:01 18.53782 13.02834 36823 ft 535 kts 165°
2026-05-07 13:02 18.46659 13.05154 36823 ft 535 kts 165°
2026-05-07 13:02 18.39544 13.07468 36829 ft 535 kts 165°
2026-05-07 13:03 18.32470 13.09767 36825 ft 535 kts 165°
2026-05-07 13:03 18.25360 13.12076 36827 ft 534 kts 164°
2026-05-07 13:04 18.18251 13.14382 36827 ft 534 kts 164°
2026-05-07 13:04 18.11138 13.16687 36828 ft 535 kts 164°
2026-05-07 13:05 18.04008 13.18996 36827 ft 535 kts 164°
2026-05-07 13:05 17.96927 13.21288 36825 ft 535 kts 164°
2026-05-07 13:06 17.89809 13.23588 36825 ft 535 kts 164°
2026-05-07 13:06 17.82689 13.25889 36825 ft 535 kts 164°
2026-05-07 13:07 17.75565 13.28188 36827 ft 535 kts 164°
2026-05-07 13:07 17.68452 13.30483 36826 ft 535 kts 164°
2026-05-07 13:08 17.61339 13.32775 36826 ft 535 kts 164°
2026-05-07 13:08 17.54222 13.35066 36821 ft 535 kts 164°
2026-05-07 13:09 17.47150 13.37343 36825 ft 535 kts 164°
2026-05-07 13:09 17.40029 13.39631 36824 ft 535 kts 164°
2026-05-07 13:10 17.32907 13.41918 36820 ft 535 kts 164°
2026-05-07 13:10 17.25789 13.44202 36816 ft 535 kts 164°
2026-05-07 13:11 17.18652 13.46491 36820 ft 535 kts 164°
2026-05-07 13:11 17.11574 13.48759 36814 ft 535 kts 164°
2026-05-07 13:12 17.04449 13.51040 36811 ft 536 kts 164°
2026-05-07 13:12 16.97320 13.53320 36809 ft 536 kts 164°
2026-05-07 13:13 16.90185 13.55600 36808 ft 536 kts 163°
2026-05-07 13:13 16.83045 13.57881 36809 ft 536 kts 163°
2026-05-07 13:14 16.75902 13.60161 36807 ft 536 kts 163°
2026-05-07 13:14 16.68809 13.62423 36801 ft 536 kts 163°
2026-05-07 13:15 16.61671 13.64698 36802 ft 536 kts 163°
2026-05-07 13:15 16.54518 13.66976 36815 ft 536 kts 163°
2026-05-07 13:16 16.47384 13.69245 36792 ft 536 kts 163°
2026-05-07 13:16 16.41455 13.71130 36794 ft 536 kts 163°
2026-05-07 13:17 16.34320 13.73396 36794 ft 536 kts 163°
2026-05-07 13:17 16.26023 13.76030 36794 ft 536 kts 163°
2026-05-07 13:18 16.20049 13.77923 36784 ft 536 kts 163°
2026-05-07 13:18 16.12910 13.80187 36798 ft 536 kts 163°
2026-05-07 13:19 16.05816 13.82433 36785 ft 536 kts 163°
2026-05-07 13:19 15.98675 13.84693 36801 ft 536 kts 163°
2026-05-07 13:20 15.91534 13.86952 36788 ft 536 kts 163°
2026-05-07 13:20 15.84395 13.89208 36808 ft 537 kts 163°
2026-05-07 13:21 15.77242 13.91466 36802 ft 537 kts 163°
2026-05-07 13:21 15.70095 13.93721 36803 ft 537 kts 163°
2026-05-07 13:22 15.62951 13.95974 36790 ft 536 kts 163°
2026-05-07 13:22 15.55792 13.98229 36806 ft 537 kts 163°
2026-05-07 13:23 15.48689 14.00465 36785 ft 537 kts 162°
2026-05-07 13:23 15.41544 14.02713 36799 ft 536 kts 162°
2026-05-07 13:24 15.34402 14.04959 36803 ft 537 kts 162°
2026-05-07 13:24 15.27238 14.07210 36803 ft 537 kts 162°
2026-05-07 13:25 15.20075 14.09458 36791 ft 536 kts 162°
2026-05-07 13:25 15.12974 14.11685 36804 ft 536 kts 162°
2026-05-07 13:26 15.05835 14.13924 36801 ft 536 kts 162°
2026-05-07 13:26 14.98699 14.16160 36801 ft 536 kts 162°
2026-05-07 13:27 14.91560 14.18395 36800 ft 536 kts 162°
2026-05-07 13:27 14.84404 14.20633 36801 ft 536 kts 162°
2026-05-07 13:28 14.77280 14.22860 36801 ft 534 kts 162°
2026-05-07 13:28 14.70161 14.25084 36799 ft 534 kts 162°
2026-05-07 13:29 14.63048 14.27305 36796 ft 534 kts 162°
2026-05-07 13:29 14.55942 14.29522 36793 ft 534 kts 162°
2026-05-07 13:30 14.48871 14.31726 36796 ft 534 kts 162°
2026-05-07 13:30 14.41767 14.33940 36794 ft 532 kts 162°
2026-05-07 13:31 14.34684 14.36146 36798 ft 531 kts 162°
2026-05-07 13:31 14.27601 14.38350 36794 ft 531 kts 162°
2026-05-07 13:32 14.20556 14.40540 36793 ft 531 kts 162°
2026-05-07 13:32 14.13474 14.42741 36792 ft 531 kts 162°
2026-05-07 13:33 14.06397 14.44939 36793 ft 531 kts 162°
2026-05-07 13:33 13.99309 14.47139 36792 ft 532 kts 162°
2026-05-07 13:34 13.88675 14.50436 36793 ft 531 kts 162°
2026-05-07 13:35 13.81588 14.52632 36788 ft 531 kts 162°
2026-05-07 13:35 13.74502 14.54826 36784 ft 531 kts 162°
2026-05-07 13:36 13.67491 14.56997 36790 ft 529 kts 162°
2026-05-07 13:36 13.60435 14.59179 36788 ft 529 kts 162°
2026-05-07 13:37 13.53374 14.61361 36789 ft 529 kts 162°
2026-05-07 13:37 13.46320 14.63540 36794 ft 529 kts 162°
2026-05-07 13:38 13.39292 14.65709 36786 ft 529 kts 162°
2026-05-07 13:38 13.32231 14.67887 36795 ft 528 kts 162°
2026-05-07 13:39 13.25191 14.70059 36794 ft 528 kts 162°
2026-05-07 13:39 13.18147 14.72229 36793 ft 528 kts 162°
2026-05-07 13:40 13.11106 14.74397 36793 ft 528 kts 162°
2026-05-07 13:40 13.04103 14.76552 36792 ft 528 kts 162°
2026-05-07 13:41 12.97072 14.78715 36791 ft 527 kts 162°
2026-05-07 13:41 12.90027 14.80880 36790 ft 527 kts 162°
2026-05-07 13:42 12.83035 14.83029 36791 ft 527 kts 162°
2026-05-07 13:42 12.76000 14.85189 36788 ft 527 kts 162°
2026-05-07 13:43 12.68963 14.87348 36789 ft 527 kts 161°
2026-05-07 13:43 12.61978 14.89491 36788 ft 526 kts 161°
2026-05-07 13:44 12.54969 14.91639 36788 ft 526 kts 161°
2026-05-07 13:44 12.47961 14.93786 36792 ft 526 kts 161°
2026-05-07 13:45 12.40942 14.95935 36792 ft 526 kts 161°
2026-05-07 13:45 12.33931 14.98080 36796 ft 526 kts 161°
2026-05-07 13:46 12.26922 15.00224 36802 ft 525 kts 161°
2026-05-07 13:46 12.19915 15.02366 36802 ft 525 kts 161°
2026-05-07 13:47 12.12872 15.04136 36804 ft 526 kts 172°
2026-05-07 13:47 12.05600 15.04985 36803 ft 525 kts 173°
2026-05-07 13:48 11.98341 15.05675 36801 ft 524 kts 173°
2026-05-07 13:48 11.91068 15.06349 36794 ft 524 kts 173°
2026-05-07 13:49 11.83809 15.07036 36795 ft 524 kts 173°
2026-05-07 13:49 11.76535 15.07735 36785 ft 524 kts 173°
2026-05-07 13:50 11.69280 15.08433 36786 ft 524 kts 173°
2026-05-07 13:50 11.62056 15.09128 36785 ft 524 kts 173°
2026-05-07 13:51 11.54783 15.09826 36786 ft 525 kts 173°
2026-05-07 13:51 11.47505 15.10525 36787 ft 525 kts 173°
2026-05-07 13:52 11.40227 15.11223 36785 ft 525 kts 173°
2026-05-07 13:52 11.32940 15.11922 36786 ft 525 kts 173°
2026-05-07 13:53 11.25665 15.12619 36787 ft 525 kts 173°
2026-05-07 13:53 11.18383 15.13317 36784 ft 525 kts 173°
2026-05-07 13:54 11.11149 15.14011 36782 ft 525 kts 173°
2026-05-07 13:54 11.03867 15.14707 36782 ft 525 kts 173°
2026-05-07 13:55 10.96586 15.15403 36782 ft 525 kts 173°
2026-05-07 13:55 10.89304 15.16098 36778 ft 525 kts 173°
2026-05-07 13:56 10.82016 15.16794 36777 ft 525 kts 173°
2026-05-07 13:56 10.74732 15.17490 36776 ft 525 kts 173°
2026-05-07 13:57 10.67489 15.18182 36779 ft 525 kts 173°
2026-05-07 13:57 10.60207 15.18877 36779 ft 525 kts 173°
2026-05-07 13:58 10.52920 15.19572 36776 ft 525 kts 173°
2026-05-07 13:58 10.45646 15.20265 36773 ft 525 kts 173°
2026-05-07 13:59 10.38367 15.20959 36774 ft 525 kts 173°
2026-05-07 13:59 10.31086 15.21652 36767 ft 525 kts 173°
2026-05-07 14:00 10.23808 15.22345 36767 ft 525 kts 173°
2026-05-07 14:00 10.16530 15.23037 36765 ft 525 kts 173°
2026-05-07 14:01 10.09240 15.23730 36767 ft 525 kts 173°
2026-05-07 14:01 10.01976 15.24421 36762 ft 525 kts 173°
2026-05-07 14:02 9.94701 15.25113 36762 ft 524 kts 173°
2026-05-07 14:02 9.87475 15.25799 36762 ft 525 kts 173°
2026-05-07 14:03 9.80195 15.26490 36760 ft 524 kts 172°
2026-05-07 14:03 9.72936 15.27179 36760 ft 524 kts 172°
2026-05-07 14:04 9.65676 15.27868 36763 ft 524 kts 172°
2026-05-07 14:04 9.58454 15.28553 36763 ft 524 kts 172°
2026-05-07 14:05 9.51210 15.29240 36759 ft 522 kts 172°
2026-05-07 14:05 9.43984 15.29924 36763 ft 521 kts 172°
2026-05-07 14:06 9.37963 15.30495 36764 ft 521 kts 172°
2026-05-07 14:06 9.30734 15.31179 36768 ft 521 kts 172°
2026-05-07 14:07 9.23511 15.31862 36768 ft 521 kts 172°
2026-05-07 14:07 9.16288 15.32544 36765 ft 521 kts 172°
2026-05-07 14:08 9.09071 15.33226 36764 ft 520 kts 172°
2026-05-07 14:08 9.01861 15.33907 36763 ft 519 kts 172°
2026-05-07 14:09 8.94706 15.34583 36765 ft 519 kts 172°
2026-05-07 14:09 8.87507 15.35263 36763 ft 519 kts 172°
2026-05-07 14:10 8.80311 15.35941 36758 ft 519 kts 172°
2026-05-07 14:10 8.73123 15.36620 36759 ft 518 kts 172°
2026-05-07 14:11 8.65955 15.37296 36762 ft 517 kts 172°
2026-05-07 14:11 8.58791 15.37972 36752 ft 517 kts 172°
2026-05-07 14:11 8.55248 15.38307 36883 ft 516 kts 172°
2026-05-07 14:12 8.51692 15.38641 37217 ft 512 kts 172°
2026-05-07 14:12 8.48155 15.38971 37489 ft 509 kts 172°
2026-05-07 14:12 8.44629 15.39300 37686 ft 508 kts 172°
2026-05-07 14:12 8.41111 15.39629 37841 ft 507 kts 172°
2026-05-07 14:13 8.37595 15.39957 37987 ft 507 kts 173°
2026-05-07 14:13 8.34088 15.40285 38135 ft 506 kts 173°
2026-05-07 14:13 8.30582 15.40613 38233 ft 506 kts 173°
2026-05-07 14:13 8.27076 15.40941 38361 ft 505 kts 173°
2026-05-07 14:14 8.23571 15.41269 38488 ft 505 kts 173°
2026-05-07 14:14 8.16571 15.41926 38628 ft 505 kts 173°
2026-05-07 14:15 8.09570 15.42581 38756 ft 506 kts 173°
2026-05-07 14:15 8.02525 15.43244 38757 ft 509 kts 173°
2026-05-07 14:16 7.95442 15.43911 38766 ft 512 kts 173°
2026-05-07 14:16 7.88381 15.44576 38764 ft 512 kts 173°
2026-05-07 14:17 7.81296 15.45242 38768 ft 511 kts 173°
2026-05-07 14:17 7.74183 15.45909 38776 ft 511 kts 173°
2026-05-07 14:18 7.67096 15.46574 38769 ft 511 kts 173°
2026-05-07 14:18 7.60010 15.47239 38778 ft 511 kts 173°
2026-05-07 14:19 7.52970 15.47899 38779 ft 511 kts 173°
2026-05-07 14:19 7.45882 15.48565 38806 ft 511 kts 173°
2026-05-07 14:20 7.38794 15.49229 38804 ft 511 kts 173°
2026-05-07 14:20 7.31710 15.49894 38820 ft 511 kts 173°
2026-05-07 14:21 7.24618 15.50558 38818 ft 512 kts 173°
2026-05-07 14:21 7.17568 15.51218 38808 ft 512 kts 173°
2026-05-07 14:22 7.10479 15.51881 38824 ft 511 kts 173°
2026-05-07 14:22 7.03390 15.52544 38814 ft 512 kts 173°
2026-05-07 14:23 6.96291 15.53208 38835 ft 512 kts 173°
2026-05-07 14:23 6.89206 15.53875 38826 ft 512 kts 173°
2026-05-07 14:24 6.82120 15.54535 38848 ft 511 kts 173°
2026-05-07 14:24 6.75022 15.55195 38846 ft 512 kts 173°
2026-05-07 14:25 6.67962 15.55853 38847 ft 511 kts 173°
2026-05-07 14:25 6.60873 15.56515 38850 ft 511 kts 173°
2026-05-07 14:26 6.53789 15.57176 38839 ft 511 kts 172°
2026-05-07 14:26 6.46734 15.57835 38845 ft 511 kts 172°
2026-05-07 14:27 6.39647 15.58495 38848 ft 511 kts 172°
2026-05-07 14:27 6.32563 15.59155 38848 ft 511 kts 172°
2026-05-07 14:28 6.25484 15.59814 38839 ft 511 kts 172°
2026-05-07 14:28 6.18396 15.60475 38839 ft 511 kts 172°
2026-05-07 14:29 6.11322 15.61134 38838 ft 510 kts 172°
2026-05-07 14:29 6.04295 15.61788 38838 ft 510 kts 172°
2026-05-07 14:30 5.97223 15.62446 38839 ft 510 kts 172°
2026-05-07 14:30 5.90152 15.63104 38837 ft 510 kts 172°
2026-05-07 14:31 5.83080 15.63764 38818 ft 511 kts 172°
2026-05-07 14:31 5.75995 15.64423 38830 ft 510 kts 172°
2026-05-07 14:32 5.68942 15.65079 38831 ft 508 kts 172°
2026-05-07 14:32 5.61900 15.65733 38826 ft 507 kts 172°
2026-05-07 14:33 5.54912 15.66386 38813 ft 507 kts 172°
2026-05-07 14:33 5.47868 15.67043 38824 ft 507 kts 172°
2026-05-07 14:34 5.40844 15.67696 38825 ft 506 kts 172°
2026-05-07 14:34 5.33823 15.68350 38818 ft 506 kts 172°
2026-05-07 14:35 5.26811 15.69002 38824 ft 506 kts 172°
2026-05-07 14:35 5.19787 15.69655 38820 ft 506 kts 172°
2026-05-07 14:36 5.12772 15.70308 38827 ft 506 kts 172°
2026-05-07 14:36 5.05812 15.70957 38824 ft 505 kts 172°
2026-05-07 14:37 4.98807 15.71610 38812 ft 505 kts 172°
2026-05-07 14:37 4.88297 15.72587 38816 ft 505 kts 172°
2026-05-07 14:38 4.81283 15.73240 38827 ft 505 kts 172°
2026-05-07 14:38 4.74279 15.73891 38822 ft 505 kts 172°
2026-05-07 14:39 4.67289 15.74537 38827 ft 505 kts 172°
2026-05-07 14:39 4.60340 15.75181 38824 ft 504 kts 172°
2026-05-07 14:40 4.53417 15.75823 38821 ft 504 kts 172°
2026-05-07 14:40 4.46425 15.76470 38831 ft 504 kts 172°
2026-05-07 14:41 4.39430 15.77118 38821 ft 504 kts 172°
2026-05-07 14:41 4.32436 15.77766 38816 ft 504 kts 172°
2026-05-07 14:42 4.25496 15.78409 38823 ft 504 kts 172°
2026-05-07 14:42 4.18475 15.78428 38815 ft 505 kts 180°
2026-05-07 14:43 4.11462 15.78124 38826 ft 504 kts 181°
2026-05-07 14:43 4.04449 15.77769 38826 ft 504 kts 181°
2026-05-07 14:44 3.97453 15.77419 38824 ft 502 kts 180°
2026-05-07 14:44 3.90475 15.77080 38810 ft 501 kts 180°
2026-05-07 14:45 3.83496 15.76744 38811 ft 501 kts 180°
2026-05-07 14:45 3.76523 15.76409 38825 ft 501 kts 180°
2026-05-07 14:46 3.69592 15.76075 38820 ft 501 kts 180°
2026-05-07 14:46 3.62618 15.75738 38827 ft 501 kts 180°
2026-05-07 14:47 3.55660 15.75402 38819 ft 500 kts 180°
2026-05-07 14:47 3.48705 15.75067 38820 ft 500 kts 180°
2026-05-07 14:48 3.41761 15.74732 38826 ft 500 kts 180°
2026-05-07 14:48 3.34850 15.74399 38827 ft 500 kts 180°
2026-05-07 14:49 3.27902 15.74064 38831 ft 500 kts 180°
2026-05-07 14:49 3.20953 15.73729 38820 ft 500 kts 180°
2026-05-07 14:50 3.14002 15.73394 38825 ft 500 kts 180°
2026-05-07 14:50 3.07047 15.73059 38830 ft 500 kts 180°
2026-05-07 14:51 3.00090 15.72725 38816 ft 500 kts 180°
2026-05-07 14:51 2.93185 15.72392 38823 ft 500 kts 180°
2026-05-07 14:52 2.86240 15.72059 38818 ft 499 kts 180°
2026-05-07 14:52 2.79314 15.71725 38820 ft 498 kts 180°
2026-05-07 14:53 2.72380 15.71391 38821 ft 498 kts 180°
2026-05-07 14:53 2.65449 15.71058 38818 ft 498 kts 180°
2026-05-07 14:54 2.58506 15.70724 38817 ft 498 kts 180°
2026-05-07 14:54 2.51621 15.70391 38816 ft 498 kts 180°
2026-05-07 14:55 2.44701 15.70057 38820 ft 498 kts 180°
2026-05-07 14:55 2.37781 15.69724 38822 ft 498 kts 180°
2026-05-07 14:56 2.30848 15.69391 38813 ft 498 kts 180°
2026-05-07 14:56 2.25089 15.69114 38817 ft 498 kts 180°
2026-05-07 14:57 2.17040 15.68725 38806 ft 498 kts 180°
2026-05-07 14:57 2.11243 15.68446 38807 ft 497 kts 180°
2026-05-07 14:58 2.04329 15.68115 38819 ft 497 kts 180°
2026-05-07 14:58 1.97415 15.67781 38809 ft 497 kts 180°
2026-05-07 14:59 1.90544 15.67449 38816 ft 497 kts 180°
2026-05-07 14:59 1.83624 15.67116 38816 ft 497 kts 180°
2026-05-07 15:00 1.76699 15.66783 38817 ft 498 kts 180°
2026-05-07 15:00 1.69780 15.66450 38809 ft 498 kts 180°
2026-05-07 15:01 1.62839 15.66116 38810 ft 498 kts 180°
2026-05-07 15:01 1.55913 15.65783 38820 ft 498 kts 180°
2026-05-07 15:02 1.48990 15.65450 38809 ft 498 kts 180°
2026-05-07 15:02 1.42109 15.65118 38822 ft 498 kts 180°
2026-05-07 15:03 1.35179 15.64784 38811 ft 498 kts 180°
2026-05-07 15:03 1.28253 15.64451 38821 ft 498 kts 180°
2026-05-07 15:04 1.21323 15.64117 38826 ft 498 kts 180°
2026-05-07 15:04 1.14392 15.63784 38821 ft 499 kts 179°
2026-05-07 15:05 1.07452 15.63450 38823 ft 498 kts 179°
2026-05-07 15:05 1.00576 15.63119 38825 ft 498 kts 179°
2026-05-07 15:06 0.93651 15.62786 38824 ft 497 kts 179°
2026-05-07 15:06 0.86722 15.62453 38821 ft 497 kts 179°
2026-05-07 15:07 0.79846 15.62122 38830 ft 497 kts 179°
2026-05-07 15:07 0.72925 15.61789 38828 ft 497 kts 179°
2026-05-07 15:08 0.66017 15.61457 38826 ft 496 kts 179°
2026-05-07 15:08 0.59108 15.61126 38818 ft 496 kts 179°
2026-05-07 15:09 0.52205 15.60794 38826 ft 496 kts 179°
2026-05-07 15:09 0.45311 15.60461 38819 ft 496 kts 179°
2026-05-07 15:10 0.38452 15.60131 38823 ft 496 kts 179°
2026-05-07 15:10 0.31549 15.59800 38818 ft 496 kts 179°
2026-05-07 15:11 0.24656 15.59469 38826 ft 496 kts 179°
2026-05-07 15:11 0.17768 15.59137 38820 ft 496 kts 179°
2026-05-07 15:12 0.10862 15.58804 38818 ft 496 kts 179°
2026-05-07 15:12 0.03968 15.58474 38816 ft 496 kts 179°
2026-05-07 15:13 -0.02924 15.58142 38825 ft 496 kts 179°
2026-05-07 15:13 -0.09766 15.57687 38819 ft 495 kts 181°
2026-05-07 15:14 -0.16642 15.57130 38824 ft 495 kts 181°
2026-05-07 15:14 -0.23529 15.56588 38818 ft 495 kts 181°
2026-05-07 15:15 -0.30355 15.56070 38824 ft 495 kts 181°
2026-05-07 15:15 -0.37229 15.55557 38823 ft 495 kts 181°
2026-05-07 15:16 -0.44103 15.55045 38822 ft 495 kts 181°
2026-05-07 15:16 -0.50984 15.54532 38823 ft 495 kts 181°
2026-05-07 15:17 -0.57853 15.54020 38823 ft 495 kts 181°
2026-05-07 15:17 -0.64729 15.53506 38817 ft 495 kts 181°
2026-05-07 15:18 -0.71561 15.52995 38819 ft 495 kts 181°
2026-05-07 15:18 -0.78430 15.52483 38823 ft 494 kts 181°
2026-05-07 15:19 -0.85285 15.51971 38816 ft 494 kts 181°
2026-05-07 15:19 -0.92137 15.51459 38823 ft 494 kts 181°
2026-05-07 15:20 -0.98987 15.50946 38824 ft 494 kts 181°
2026-05-07 15:20 -1.05838 15.50435 38816 ft 494 kts 181°
2026-05-07 15:21 -1.12699 15.49923 38828 ft 494 kts 181°
2026-05-07 15:21 -1.19550 15.49413 38828 ft 493 kts 181°
2026-05-07 15:22 -1.26397 15.48905 38823 ft 493 kts 181°
2026-05-07 15:22 -1.33246 15.48394 38822 ft 493 kts 181°
2026-05-07 15:23 -1.40093 15.47884 38828 ft 493 kts 181°
2026-05-07 15:23 -1.46898 15.47377 38832 ft 493 kts 181°
2026-05-07 15:24 -1.53746 15.46869 38827 ft 493 kts 181°
2026-05-07 15:24 -1.60589 15.46360 38829 ft 493 kts 181°
2026-05-07 15:25 -1.67427 15.45849 38828 ft 493 kts 181°
2026-05-07 15:25 -1.74272 15.45337 38829 ft 493 kts 181°
2026-05-07 15:26 -1.81111 15.44828 38832 ft 493 kts 181°
2026-05-07 15:26 -1.87960 15.44298 38833 ft 494 kts 181°
2026-05-07 15:27 -1.94773 15.43733 38828 ft 494 kts 181°
2026-05-07 15:27 -2.01637 15.43166 38834 ft 494 kts 181°
2026-05-07 15:28 -2.08497 15.42605 38841 ft 494 kts 181°
2026-05-07 15:28 -2.15356 15.42049 38845 ft 495 kts 181°
2026-05-07 15:29 -2.22223 15.41491 38847 ft 495 kts 182°
2026-05-07 15:29 -2.29076 15.40935 38851 ft 498 kts 182°
2026-05-07 15:30 -2.36005 15.40373 38854 ft 500 kts 182°
2026-05-07 15:30 -2.42931 15.39811 38857 ft 499 kts 182°
2026-05-07 15:31 -2.49860 15.39248 38856 ft 499 kts 182°
2026-05-07 15:31 -2.56783 15.38685 38852 ft 499 kts 182°
2026-05-07 15:32 -2.63704 15.38122 38854 ft 499 kts 182°
2026-05-07 15:32 -2.70638 15.37559 38855 ft 500 kts 182°
2026-05-07 15:33 -2.77529 15.37001 38854 ft 500 kts 182°
2026-05-07 15:33 -2.84464 15.36438 38854 ft 500 kts 182°
2026-05-07 15:34 -2.91390 15.35875 38853 ft 500 kts 182°
2026-05-07 15:34 -2.98323 15.35310 38860 ft 499 kts 182°
2026-05-07 15:35 -3.05228 15.34748 38862 ft 497 kts 182°
2026-05-07 15:35 -3.12133 15.34186 38868 ft 497 kts 182°
2026-05-07 15:36 -3.19035 15.33625 38868 ft 497 kts 181°
2026-05-07 15:36 -3.25928 15.33064 38877 ft 497 kts 182°
2026-05-07 15:37 -3.32837 15.32501 38876 ft 497 kts 181°
2026-05-07 15:37 -3.39697 15.31942 38883 ft 497 kts 181°
2026-05-07 15:38 -3.46597 15.31382 38884 ft 497 kts 181°
2026-05-07 15:38 -3.53489 15.30822 38886 ft 497 kts 181°
2026-05-07 15:39 -3.60394 15.30260 38890 ft 497 kts 181°
2026-05-07 15:39 -3.67295 15.29699 38888 ft 497 kts 181°
2026-05-07 15:40 -3.74208 15.29136 38886 ft 500 kts 181°
2026-05-07 15:40 -3.81139 15.28571 38883 ft 504 kts 181°
2026-05-07 15:41 -3.88130 15.28001 38885 ft 503 kts 181°
2026-05-07 15:41 -3.95114 15.27432 38884 ft 503 kts 181°
2026-05-07 15:42 -4.02082 15.26866 38882 ft 503 kts 181°
2026-05-07 15:42 -4.09019 15.26302 38884 ft 503 kts 181°
2026-05-07 15:43 -4.16001 15.25807 38885 ft 501 kts 177°
2026-05-07 15:43 -4.22820 15.26766 38885 ft 493 kts 158°
2026-05-07 15:44 -4.28861 15.29864 38882 ft 488 kts 139°
2026-05-07 15:44 -4.33688 15.34614 38879 ft 488 kts 128°
2026-05-07 15:45 -4.38641 15.39327 38882 ft 495 kts 141°
2026-05-07 15:45 -4.44863 15.42334 38878 ft 502 kts 162°
2026-05-07 15:46 -4.55217 15.43827 38884 ft 503 kts 171°
2026-05-07 15:47 -4.62177 15.44507 38880 ft 502 kts 171°
2026-05-07 15:47 -4.68011 15.45092 38878 ft 502 kts 171°
2026-05-07 15:48 -4.74919 15.45816 38876 ft 502 kts 171°
2026-05-07 15:48 -4.81870 15.46558 38877 ft 501 kts 171°
2026-05-07 15:49 -4.88797 15.47300 38882 ft 500 kts 171°
2026-05-07 15:49 -4.95713 15.48040 38883 ft 500 kts 171°
2026-05-07 15:50 -5.02640 15.48781 38886 ft 500 kts 171°
2026-05-07 15:50 -5.09552 15.49519 38887 ft 500 kts 171°
2026-05-07 15:51 -5.16428 15.50254 38891 ft 499 kts 171°
2026-05-07 15:51 -5.23334 15.50992 38887 ft 499 kts 171°
2026-05-07 15:52 -5.30237 15.51729 38894 ft 499 kts 171°
2026-05-07 15:52 -5.37132 15.52467 38895 ft 499 kts 171°
2026-05-07 15:53 -5.44044 15.53207 38902 ft 499 kts 171°
2026-05-07 15:53 -5.50940 15.53945 38894 ft 499 kts 171°
2026-05-07 15:54 -5.57860 15.54686 38915 ft 500 kts 171°
2026-05-07 15:54 -5.64739 15.55424 38894 ft 500 kts 171°
2026-05-07 15:55 -5.71657 15.56165 38896 ft 500 kts 171°
2026-05-07 15:55 -5.78582 15.56906 38890 ft 500 kts 171°
2026-05-07 15:56 -5.85510 15.57650 38893 ft 500 kts 171°
2026-05-07 15:56 -5.92430 15.58397 38887 ft 500 kts 171°
2026-05-07 15:57 -5.99362 15.59138 38887 ft 501 kts 171°
2026-05-07 15:57 -6.06248 15.59876 38883 ft 501 kts 171°
2026-05-07 15:58 -6.13189 15.60622 38885 ft 501 kts 171°
2026-05-07 15:58 -6.20121 15.61367 38881 ft 501 kts 171°
2026-05-07 15:59 -6.27055 15.62112 38883 ft 501 kts 171°
2026-05-07 15:59 -6.33983 15.62857 38878 ft 501 kts 171°
2026-05-07 16:00 -6.40880 15.63599 38880 ft 501 kts 171°
2026-05-07 16:00 -6.47827 15.64346 38873 ft 501 kts 171°
2026-05-07 16:01 -6.54765 15.65094 38876 ft 502 kts 171°
2026-05-07 16:01 -6.61726 15.65844 38872 ft 502 kts 172°
2026-05-07 16:02 -6.68669 15.66593 38873 ft 502 kts 172°
2026-05-07 16:02 -6.75622 15.67342 38875 ft 502 kts 172°
2026-05-07 16:03 -6.82572 15.68090 38878 ft 502 kts 172°
2026-05-07 16:03 -6.89523 15.68839 38877 ft 502 kts 172°
2026-05-07 16:04 -6.96429 15.69584 38877 ft 502 kts 172°
2026-05-07 16:04 -7.03382 15.70334 38883 ft 502 kts 172°
2026-05-07 16:05 -7.10335 15.71084 38881 ft 502 kts 172°
2026-05-07 16:05 -7.17299 15.71836 38888 ft 502 kts 172°
2026-05-07 16:06 -7.24253 15.72587 38889 ft 502 kts 172°
2026-05-07 16:06 -7.31174 15.73335 38887 ft 503 kts 172°
2026-05-07 16:07 -7.38127 15.74087 38894 ft 503 kts 172°
2026-05-07 16:07 -7.45097 15.74840 38894 ft 503 kts 172°
2026-05-07 16:08 -7.52062 15.75593 38894 ft 503 kts 172°
2026-05-07 16:08 -7.59021 15.76346 38894 ft 503 kts 172°
2026-05-07 16:09 -7.65984 15.77100 38897 ft 503 kts 172°
2026-05-07 16:09 -7.72900 15.77847 38897 ft 503 kts 172°
2026-05-07 16:10 -7.79864 15.78598 38896 ft 503 kts 172°
2026-05-07 16:10 -7.86825 15.79349 38895 ft 503 kts 172°
2026-05-07 16:11 -7.93783 15.80099 38899 ft 503 kts 172°
2026-05-07 16:11 -8.00744 15.80851 38897 ft 503 kts 172°
2026-05-07 16:12 -8.07711 15.81608 38895 ft 503 kts 172°
2026-05-07 16:12 -8.14640 15.82366 38896 ft 503 kts 172°
2026-05-07 16:13 -8.21611 15.83124 38903 ft 503 kts 172°
2026-05-07 16:13 -8.28582 15.83884 38901 ft 503 kts 172°
2026-05-07 16:14 -8.35553 15.84646 38900 ft 503 kts 172°
2026-05-07 16:14 -8.42519 15.85410 38904 ft 504 kts 172°
2026-05-07 16:15 -8.49485 15.86162 38901 ft 507 kts 172°
2026-05-07 16:15 -8.56501 15.86922 38903 ft 507 kts 172°
2026-05-07 16:16 -8.63519 15.87684 38904 ft 507 kts 172°
2026-05-07 16:16 -8.70548 15.88448 38903 ft 507 kts 172°
2026-05-07 16:17 -8.77516 15.89206 38899 ft 506 kts 172°
2026-05-07 16:17 -8.84515 15.89972 38900 ft 505 kts 172°
2026-05-07 16:18 -8.91510 15.90734 38895 ft 505 kts 172°
2026-05-07 16:18 -8.98503 15.91494 38894 ft 505 kts 172°
2026-05-07 16:19 -9.05454 15.92250 38892 ft 505 kts 172°
2026-05-07 16:19 -9.12450 15.93012 38891 ft 505 kts 172°
2026-05-07 16:20 -9.19454 15.93775 38889 ft 506 kts 172°
2026-05-07 16:20 -9.26467 15.94540 38889 ft 506 kts 172°
2026-05-07 16:21 -9.33482 15.95306 38891 ft 506 kts 172°
2026-05-07 16:21 -9.40496 15.96072 38890 ft 506 kts 172°
2026-05-07 16:22 -9.47499 15.96841 38889 ft 506 kts 172°
2026-05-07 16:22 -9.54473 15.97606 38889 ft 507 kts 172°
2026-05-07 16:23 -9.61488 15.98371 38885 ft 507 kts 172°
2026-05-07 16:23 -9.68510 15.99139 38885 ft 507 kts 172°
2026-05-07 16:24 -9.75535 15.99909 38895 ft 508 kts 172°
2026-05-07 16:24 -9.82570 16.00681 38893 ft 509 kts 173°
2026-05-07 16:25 -9.89619 16.01455 38893 ft 509 kts 173°
2026-05-07 16:25 -9.96651 16.02226 38891 ft 508 kts 173°
2026-05-07 16:26 -10.03690 16.02999 38901 ft 508 kts 173°
2026-05-07 16:26 -10.10729 16.03774 38901 ft 508 kts 172°
2026-05-07 16:27 -10.17755 16.04604 38916 ft 508 kts 172°
2026-05-07 16:27 -10.24742 16.05450 38916 ft 507 kts 173°
2026-05-07 16:28 -10.31764 16.06294 38926 ft 507 kts 173°
2026-05-07 16:28 -10.38778 16.07132 38923 ft 507 kts 173°
2026-05-07 16:29 -10.45758 16.07965 38930 ft 507 kts 173°
2026-05-07 16:29 -10.52772 16.08803 38942 ft 507 kts 173°
2026-05-07 16:30 -10.59802 16.09643 38937 ft 510 kts 173°
2026-05-07 16:30 -10.66849 16.10486 38937 ft 510 kts 173°
2026-05-07 16:31 -10.73923 16.11333 38950 ft 510 kts 173°
2026-05-07 16:31 -10.80975 16.12176 38949 ft 510 kts 173°
2026-05-07 16:32 -10.87990 16.13015 38961 ft 510 kts 173°
2026-05-07 16:32 -10.95079 16.13849 38954 ft 515 kts 173°
2026-05-07 16:33 -11.02253 16.14600 38950 ft 518 kts 174°
2026-05-07 16:33 -11.09420 16.15331 38944 ft 517 kts 174°
2026-05-07 16:34 -11.15387 16.15950 38953 ft 517 kts 174°
2026-05-07 16:34 -11.23714 16.16824 38954 ft 517 kts 174°
2026-05-07 16:35 -11.29711 16.17458 38953 ft 517 kts 174°
2026-05-07 16:35 -11.36876 16.18214 38954 ft 517 kts 174°
2026-05-07 16:36 -11.44005 16.18967 38950 ft 518 kts 174°
2026-05-07 16:36 -11.51177 16.19724 38942 ft 517 kts 174°
2026-05-07 16:37 -11.58353 16.20482 38947 ft 517 kts 174°
2026-05-07 16:37 -11.65514 16.21240 38944 ft 517 kts 174°
2026-05-07 16:38 -11.72677 16.21997 38934 ft 517 kts 174°
2026-05-07 16:38 -11.79844 16.22754 38929 ft 518 kts 174°
2026-05-07 16:39 -11.87015 16.23513 38924 ft 518 kts 174°
2026-05-07 16:39 -11.94144 16.24269 38930 ft 518 kts 175°
2026-05-07 16:40 -12.01310 16.25029 38912 ft 518 kts 175°
2026-05-07 16:40 -12.08490 16.25790 38919 ft 517 kts 175°
2026-05-07 16:41 -12.15611 16.26545 38920 ft 517 kts 175°
2026-05-07 16:41 -12.22775 16.27306 38911 ft 518 kts 174°
2026-05-07 16:42 -12.29949 16.28084 38926 ft 518 kts 175°
2026-05-07 16:42 -12.37120 16.28872 38921 ft 517 kts 175°
2026-05-07 16:43 -12.44289 16.29657 38921 ft 517 kts 175°
2026-05-07 16:43 -12.51446 16.30441 38912 ft 517 kts 175°
2026-05-07 16:44 -12.58611 16.31227 38915 ft 517 kts 175°
2026-05-07 16:44 -12.65760 16.32011 38918 ft 517 kts 175°
2026-05-07 16:45 -12.72870 16.32792 38922 ft 517 kts 175°
2026-05-07 16:45 -12.80016 16.33575 38917 ft 517 kts 175°
2026-05-07 16:46 -12.87164 16.34361 38916 ft 517 kts 175°
2026-05-07 16:46 -12.94322 16.35148 38930 ft 517 kts 175°
2026-05-07 16:47 -13.01482 16.35938 38918 ft 517 kts 176°
2026-05-07 16:47 -13.08622 16.36723 38918 ft 516 kts 176°
2026-05-07 16:48 -13.15768 16.37509 38917 ft 516 kts 176°
2026-05-07 16:48 -13.22899 16.38293 38916 ft 516 kts 176°
2026-05-07 16:49 -13.30007 16.39078 38914 ft 516 kts 175°
2026-05-07 16:49 -13.37150 16.39869 38913 ft 514 kts 176°
2026-05-07 16:50 -13.44255 16.40653 38914 ft 512 kts 176°
2026-05-07 16:50 -13.51338 16.41434 38914 ft 512 kts 176°
2026-05-07 16:51 -13.58430 16.42216 38910 ft 512 kts 176°
2026-05-07 16:51 -13.65534 16.43002 38910 ft 513 kts 176°
2026-05-07 16:52 -13.72640 16.43789 38914 ft 512 kts 176°
2026-05-07 16:52 -13.79730 16.44577 38911 ft 513 kts 176°
2026-05-07 16:53 -13.86784 16.45360 38909 ft 513 kts 176°
2026-05-07 16:53 -13.93886 16.46144 38914 ft 513 kts 176°
2026-05-07 16:54 -14.00979 16.46930 38929 ft 513 kts 177°
2026-05-07 16:54 -14.08068 16.47720 38914 ft 510 kts 177°
2026-05-07 16:55 -14.15081 16.48501 38915 ft 509 kts 177°
2026-05-07 16:55 -14.22127 16.49283 38920 ft 509 kts 177°
2026-05-07 16:56 -14.29173 16.50065 38922 ft 509 kts 177°
2026-05-07 16:56 -14.39741 16.51241 38922 ft 508 kts 177°
2026-05-07 16:57 -14.46778 16.52024 38920 ft 507 kts 177°
2026-05-07 16:57 -14.53769 16.52802 38919 ft 507 kts 177°
2026-05-07 16:58 -14.60798 16.53585 38923 ft 507 kts 177°
2026-05-07 16:58 -14.67828 16.54369 38925 ft 507 kts 177°
2026-05-07 16:59 -14.74808 16.55148 38925 ft 508 kts 177°
2026-05-07 16:59 -14.81836 16.55935 38927 ft 508 kts 177°
2026-05-07 17:00 -14.88880 16.56722 38930 ft 508 kts 177°
2026-05-07 17:00 -14.95910 16.57508 38931 ft 508 kts 177°
2026-05-07 17:01 -15.02945 16.58296 38934 ft 508 kts 178°
2026-05-07 17:01 -15.09938 16.59079 38928 ft 509 kts 178°
2026-05-07 17:02 -15.16992 16.59870 38931 ft 509 kts 178°
2026-05-07 17:02 -15.24035 16.60666 38933 ft 509 kts 178°
2026-05-07 17:03 -15.31088 16.61473 38929 ft 509 kts 178°
2026-05-07 17:03 -15.38138 16.62282 38942 ft 509 kts 178°
2026-05-07 17:04 -15.45157 16.63088 38935 ft 506 kts 178°
2026-05-07 17:04 -15.52147 16.63888 38936 ft 505 kts 178°
2026-05-07 17:05 -15.59138 16.64686 38939 ft 505 kts 178°
2026-05-07 17:05 -15.66086 16.65482 38938 ft 505 kts 178°
2026-05-07 17:06 -15.73084 16.66285 38946 ft 505 kts 179°
2026-05-07 17:06 -15.80075 16.67087 38940 ft 505 kts 179°
2026-05-07 17:07 -15.87064 16.67889 38941 ft 505 kts 179°
2026-05-07 17:07 -15.94070 16.68694 38941 ft 505 kts 179°
2026-05-07 17:08 -16.01034 16.69495 38941 ft 505 kts 179°
2026-05-07 17:08 -16.08026 16.70300 38941 ft 506 kts 179°
2026-05-07 17:09 -16.15039 16.71106 38938 ft 507 kts 179°
2026-05-07 17:09 -16.22064 16.71917 38944 ft 507 kts 179°
2026-05-07 17:10 -16.29027 16.72720 38941 ft 507 kts 179°
2026-05-07 17:10 -16.36040 16.73529 38942 ft 507 kts 179°
2026-05-07 17:11 -16.43050 16.74339 38943 ft 507 kts 179°
2026-05-07 17:11 -16.50071 16.75150 38946 ft 507 kts 179°
2026-05-07 17:12 -16.57084 16.75962 38948 ft 507 kts 179°
2026-05-07 17:12 -16.64097 16.76775 38953 ft 507 kts 179°
2026-05-07 17:13 -16.71111 16.77586 38975 ft 507 kts 179°
2026-05-07 17:13 -16.78135 16.78401 38955 ft 507 kts 179°
2026-05-07 17:14 -16.85101 16.79208 38954 ft 506 kts 179°
2026-05-07 17:14 -16.92100 16.80020 38959 ft 506 kts 179°
2026-05-07 17:15 -16.99104 16.80833 38962 ft 506 kts 179°
2026-05-07 17:15 -17.06116 16.81649 38955 ft 506 kts 179°
2026-05-07 17:16 -17.13116 16.82463 38966 ft 506 kts 179°
2026-05-07 17:16 -17.20108 16.83277 38962 ft 506 kts 179°
2026-05-07 17:17 -17.27101 16.84092 38960 ft 506 kts 179°
2026-05-07 17:17 -17.34094 16.84908 38952 ft 506 kts 179°
2026-05-07 17:18 -17.41093 16.85726 38959 ft 505 kts 179°
2026-05-07 17:18 -17.48075 16.86538 38954 ft 505 kts 179°
2026-05-07 17:19 -17.55069 16.87344 38950 ft 505 kts 179°
2026-05-07 17:19 -17.62006 16.88143 38950 ft 505 kts 179°
2026-05-07 17:20 -17.68997 16.88952 38953 ft 505 kts 179°
2026-05-07 17:20 -17.75993 16.89762 38955 ft 505 kts 179°
2026-05-07 17:21 -17.82977 16.90572 38956 ft 505 kts 179°
2026-05-07 17:21 -17.89963 16.91385 38965 ft 505 kts 179°
2026-05-07 17:22 -17.96916 16.92193 38966 ft 505 kts 179°
2026-05-07 17:22 -18.02724 16.92869 38966 ft 505 kts 179°
2026-05-07 17:23 -18.09706 16.93681 38963 ft 505 kts 179°
2026-05-07 17:23 -18.16694 16.94495 38963 ft 505 kts 179°
2026-05-07 17:24 -18.23679 16.95309 38968 ft 505 kts 179°
2026-05-07 17:24 -18.30671 16.96124 38967 ft 505 kts 179°
2026-05-07 17:25 -18.37664 16.96942 38979 ft 505 kts 179°
2026-05-07 17:25 -18.44616 16.97754 38970 ft 505 kts 179°
2026-05-07 17:26 -18.51614 16.98573 38966 ft 505 kts 179°
2026-05-07 17:26 -18.58612 16.99395 38973 ft 505 kts 179°
2026-05-07 17:27 -18.65562 17.00209 38976 ft 505 kts 179°
2026-05-07 17:27 -18.72552 17.01027 38975 ft 505 kts 179°
2026-05-07 17:28 -18.79538 17.01845 38979 ft 505 kts 179°
2026-05-07 17:28 -18.86517 17.02665 38985 ft 505 kts 179°
2026-05-07 17:29 -18.93496 17.03486 38983 ft 505 kts 179°
2026-05-07 17:29 -19.00494 17.04310 39145 ft 505 kts 179°
2026-05-07 17:30 -19.03970 17.04721 39378 ft 502 kts 179°
2026-05-07 17:30 -19.07444 17.05131 39554 ft 501 kts 179°
2026-05-07 17:30 -19.10908 17.05538 39660 ft 501 kts 179°
2026-05-07 17:30 -19.14327 17.05939 39782 ft 501 kts 179°
2026-05-07 17:31 -19.17791 17.06348 39915 ft 500 kts 179°
2026-05-07 17:31 -19.21248 17.06765 40042 ft 500 kts 179°
2026-05-07 17:31 -19.24706 17.07185 40170 ft 499 kts 179°
2026-05-07 17:31 -19.28154 17.07606 40287 ft 498 kts 179°
2026-05-07 17:32 -19.31587 17.08025 40419 ft 498 kts 179°
2026-05-07 17:32 -19.35036 17.08447 40541 ft 496 kts 179°
2026-05-07 17:32 -19.38468 17.08866 40655 ft 496 kts 179°
2026-05-07 17:32 -19.41892 17.09283 40737 ft 495 kts 179°
2026-05-07 17:33 -19.48743 17.10118 40890 ft 495 kts 179°
2026-05-07 17:33 -19.55586 17.10952 41013 ft 495 kts 179°
2026-05-07 17:34 -19.62385 17.11782 41012 ft 495 kts 179°
2026-05-07 17:34 -19.69218 17.12617 41016 ft 494 kts 179°
2026-05-07 17:35 -19.76042 17.13453 41016 ft 493 kts 179°
2026-05-07 17:35 -19.82862 17.14289 41020 ft 493 kts 179°
2026-05-07 17:36 -19.89689 17.15128 41023 ft 494 kts 179°
2026-05-07 17:36 -19.96510 17.15968 41048 ft 494 kts 179°
2026-05-07 17:37 -20.03338 17.16810 41022 ft 493 kts 179°
2026-05-07 17:37 -20.10151 17.17649 41022 ft 493 kts 179°
2026-05-07 17:38 -20.16921 17.18483 41024 ft 493 kts 179°
2026-05-07 17:38 -20.23741 17.19323 41030 ft 493 kts 179°
2026-05-07 17:39 -20.30556 17.20164 41034 ft 492 kts 179°
2026-05-07 17:39 -20.37352 17.21004 41033 ft 491 kts 179°
2026-05-07 17:40 -20.44144 17.21844 41031 ft 491 kts 179°
2026-05-07 17:40 -20.50934 17.22683 41034 ft 491 kts 179°
2026-05-07 17:41 -20.57730 17.23523 41037 ft 491 kts 179°
2026-05-07 17:41 -20.64521 17.24365 41041 ft 490 kts 179°
2026-05-07 17:42 -20.71286 17.25205 41034 ft 489 kts 179°
2026-05-07 17:42 -20.78013 17.26040 41045 ft 489 kts 179°
2026-05-07 17:43 -20.84779 17.26885 41030 ft 489 kts 179°
2026-05-07 17:43 -20.91555 17.27727 41056 ft 489 kts 179°
2026-05-07 17:44 -20.98322 17.28564 41048 ft 489 kts 179°
2026-05-07 17:44 -21.05034 17.29396 41033 ft 489 kts 179°
2026-05-07 17:45 -21.11793 17.30237 41038 ft 489 kts 179°
2026-05-07 17:45 -21.18551 17.31079 41045 ft 489 kts 179°
2026-05-07 17:46 -21.25319 17.31922 41048 ft 489 kts 179°
2026-05-07 17:46 -21.32078 17.32766 41045 ft 489 kts 179°
2026-05-07 17:47 -21.38837 17.33611 41045 ft 489 kts 179°
2026-05-07 17:47 -21.45602 17.34456 41043 ft 489 kts 179°
2026-05-07 17:48 -21.52357 17.35301 41046 ft 489 kts 179°
2026-05-07 17:48 -21.59063 17.36143 41050 ft 488 kts 179°
2026-05-07 17:49 -21.65803 17.36988 41045 ft 487 kts 179°
2026-05-07 17:49 -21.72551 17.37835 41042 ft 487 kts 179°
2026-05-07 17:50 -21.79291 17.38681 41045 ft 487 kts 179°
2026-05-07 17:50 -21.86039 17.39530 41060 ft 488 kts 179°
2026-05-07 17:51 -21.92736 17.40373 41047 ft 488 kts 179°
2026-05-07 17:51 -21.99486 17.41223 41045 ft 488 kts 179°
2026-05-07 17:52 -22.06237 17.42074 41044 ft 488 kts 179°
2026-05-07 17:52 -22.12984 17.42927 41046 ft 488 kts 179°
2026-05-07 17:53 -22.19738 17.43780 41086 ft 488 kts 179°
2026-05-07 17:53 -22.26488 17.44633 41130 ft 488 kts 179°
2026-05-07 17:54 -22.33237 17.45487 41172 ft 488 kts 179°
2026-05-07 17:54 -22.39993 17.46343 41210 ft 488 kts 179°
2026-05-07 17:55 -22.46743 17.47200 41235 ft 489 kts 180°
2026-05-07 17:55 -22.50131 17.47647 41054 ft 489 kts 179°
2026-05-07 17:55 -22.53499 17.48168 41051 ft 490 kts 178°
2026-05-07 17:56 -22.60256 17.49319 41052 ft 491 kts 177°
2026-05-07 17:56 -22.66969 17.50465 41053 ft 491 kts 178°
2026-05-07 17:57 -22.72589 17.51400 41052 ft 491 kts 178°
2026-05-07 17:57 -22.80486 17.52702 41055 ft 491 kts 178°
2026-05-07 17:58 -22.87238 17.53810 41055 ft 491 kts 178°
2026-05-07 17:58 -22.94003 17.54920 41056 ft 491 kts 178°
2026-05-07 17:59 -23.00768 17.56033 41057 ft 491 kts 178°
2026-05-07 17:59 -23.07482 17.57143 41087 ft 491 kts 178°
2026-05-07 18:00 -23.14245 17.58259 41061 ft 491 kts 178°
2026-05-07 18:00 -23.20996 17.59374 41061 ft 491 kts 178°
2026-05-07 18:01 -23.27749 17.60493 41062 ft 491 kts 178°
2026-05-07 18:01 -23.34508 17.61606 41069 ft 491 kts 178°
2026-05-07 18:02 -23.44637 17.63268 41073 ft 490 kts 178°
2026-05-07 18:03 -23.51393 17.64378 41070 ft 490 kts 178°
2026-05-07 18:03 -23.58104 17.65480 41077 ft 490 kts 178°
2026-05-07 18:04 -23.64859 17.66595 41084 ft 490 kts 178°
2026-05-07 18:04 -23.71601 17.67705 41081 ft 490 kts 179°
2026-05-07 18:05 -23.78357 17.68820 41086 ft 489 kts 179°
2026-05-07 18:05 -23.85051 17.69911 41088 ft 489 kts 179°
2026-05-07 18:06 -23.91788 17.71002 41089 ft 489 kts 179°
2026-05-07 18:06 -23.98522 17.72097 41114 ft 489 kts 179°
2026-05-07 18:07 -24.05046 17.73164 41090 ft 488 kts 179°
2026-05-07 18:07 -24.11770 17.74263 41088 ft 487 kts 179°
2026-05-07 18:08 -24.18446 17.75351 41093 ft 488 kts 179°
2026-05-07 18:08 -24.25171 17.76450 41096 ft 489 kts 179°
2026-05-07 18:09 -24.31898 17.77552 41098 ft 489 kts 179°
2026-05-07 18:09 -24.38632 17.78657 41101 ft 489 kts 179°
2026-05-07 18:10 -24.45360 17.79762 41108 ft 489 kts 179°
2026-05-07 18:10 -24.50960 17.80683 41104 ft 489 kts 179°
2026-05-07 18:11 -24.57697 17.81772 41125 ft 489 kts 179°
2026-05-07 18:11 -24.64428 17.82846 41107 ft 488 kts 179°
2026-05-07 18:12 -24.71146 17.83923 41108 ft 488 kts 179°
2026-05-07 18:12 -24.77862 17.85004 41110 ft 488 kts 179°
2026-05-07 18:13 -24.84582 17.86088 41115 ft 488 kts 179°
2026-05-07 18:13 -24.91263 17.87167 41111 ft 487 kts 179°
2026-05-07 18:14 -24.97961 17.88252 41117 ft 486 kts 179°
2026-05-07 18:14 -25.04671 17.89342 41121 ft 486 kts 179°
2026-05-07 18:15 -25.11322 17.90430 41119 ft 486 kts 179°
2026-05-07 18:15 -25.18016 17.91524 41131 ft 486 kts 179°
2026-05-07 18:16 -25.24706 17.92619 41125 ft 485 kts 179°
2026-05-07 18:16 -25.31382 17.93712 41124 ft 485 kts 179°
2026-05-07 18:17 -25.38062 17.94809 41123 ft 485 kts 179°
2026-05-07 18:17 -25.44748 17.95910 41152 ft 486 kts 179°
2026-05-07 18:18 -25.51439 17.97013 41124 ft 485 kts 179°
2026-05-07 18:18 -25.58110 17.98112 41124 ft 485 kts 179°
2026-05-07 18:19 -25.64779 17.99214 41127 ft 485 kts 179°
2026-05-07 18:19 -25.71424 18.00311 41127 ft 485 kts 179°
2026-05-07 18:20 -25.78099 18.01415 41136 ft 484 kts 179°
2026-05-07 18:20 -25.84768 18.02517 41135 ft 484 kts 179°
2026-05-07 18:21 -25.91437 18.03621 41139 ft 484 kts 179°
2026-05-07 18:21 -25.98107 18.04727 41135 ft 484 kts 179°
2026-05-07 18:22 -26.04780 18.05835 41143 ft 484 kts 179°
2026-05-07 18:22 -26.11442 18.06945 41144 ft 484 kts 179°
2026-05-07 18:23 -26.18071 18.08049 41144 ft 484 kts 179°
2026-05-07 18:23 -26.24737 18.09158 41144 ft 484 kts 179°
2026-05-07 18:24 -26.31416 18.10273 41181 ft 484 kts 179°
2026-05-07 18:24 -26.38079 18.11389 41146 ft 484 kts 179°
2026-05-07 18:25 -26.44745 18.12505 41146 ft 484 kts 179°
2026-05-07 18:25 -26.51403 18.13617 41151 ft 484 kts 179°
2026-05-07 18:26 -26.58060 18.14733 41143 ft 484 kts 179°
2026-05-07 18:26 -26.64676 18.15843 41146 ft 484 kts 179°
2026-05-07 18:27 -26.71341 18.16963 41147 ft 484 kts 179°
2026-05-07 18:27 -26.78013 18.18085 41143 ft 484 kts 179°
2026-05-07 18:28 -26.84675 18.19208 41144 ft 484 kts 179°
2026-05-07 18:28 -26.91338 18.20330 41150 ft 484 kts 179°
2026-05-07 18:29 -26.97967 18.21448 41145 ft 484 kts 179°
2026-05-07 18:29 -27.04638 18.22576 41146 ft 484 kts 178°
2026-05-07 18:30 -27.11302 18.23707 41150 ft 484 kts 179°
2026-05-07 18:30 -27.17967 18.24837 41151 ft 484 kts 178°
2026-05-07 18:31 -27.24630 18.25967 41150 ft 484 kts 178°
2026-05-07 18:31 -27.31294 18.27098 41150 ft 484 kts 178°
2026-05-07 18:32 -27.37957 18.28230 41157 ft 484 kts 178°
2026-05-07 18:32 -27.44588 18.29358 41174 ft 484 kts 178°
2026-05-07 18:33 -27.51260 18.30491 41157 ft 484 kts 179°
2026-05-07 18:33 -27.57921 18.31162 41160 ft 479 kts 184°
2026-05-07 18:34 -27.64568 18.31569 41160 ft 478 kts 184°
2026-05-07 18:34 -27.71210 18.32028 41159 ft 478 kts 183°
2026-05-07 18:35 -27.77828 18.32551 41162 ft 479 kts 182°
2026-05-07 18:35 -27.84475 18.33102 41160 ft 479 kts 182°
2026-05-07 18:36 -27.91146 18.33661 41162 ft 479 kts 182°
2026-05-07 18:36 -27.97790 18.34207 41166 ft 479 kts 182°
2026-05-07 18:37 -28.04454 18.34749 41167 ft 479 kts 182°
2026-05-07 18:37 -28.11081 18.35298 41167 ft 481 kts 181°
2026-05-07 18:38 -28.17753 18.36459 41166 ft 486 kts 176°
2026-05-07 18:38 -28.24429 18.37842 41165 ft 488 kts 176°
2026-05-07 18:39 -28.31111 18.39260 41167 ft 488 kts 176°
2026-05-07 18:39 -28.37783 18.40670 41169 ft 488 kts 176°
2026-05-07 18:40 -28.44455 18.42079 41165 ft 488 kts 176°
2026-05-07 18:40 -28.51102 18.43474 41160 ft 488 kts 176°
2026-05-07 18:41 -28.57787 18.44878 41167 ft 489 kts 175°
2026-05-07 18:41 -28.64474 18.46293 41163 ft 489 kts 175°
2026-05-07 18:42 -28.71178 18.47709 41159 ft 489 kts 175°
2026-05-07 18:42 -28.77834 18.49116 41161 ft 489 kts 175°
2026-05-07 18:43 -28.84531 18.50533 41166 ft 489 kts 175°
2026-05-07 18:43 -28.91223 18.51951 41162 ft 489 kts 175°
2026-05-07 18:44 -28.97911 18.53370 41158 ft 489 kts 175°
2026-05-07 18:44 -29.04556 18.54782 41159 ft 489 kts 175°
2026-05-07 18:45 -29.11237 18.56205 41166 ft 488 kts 175°
2026-05-07 18:45 -29.17925 18.57629 41162 ft 488 kts 175°
2026-05-07 18:46 -29.24627 18.59058 41166 ft 488 kts 175°
2026-05-07 18:46 -29.31306 18.60487 41165 ft 488 kts 175°
2026-05-07 18:47 -29.37990 18.61918 41175 ft 488 kts 175°
2026-05-07 18:47 -29.44627 18.63340 41171 ft 489 kts 175°
2026-05-07 18:48 -29.51318 18.64776 41183 ft 489 kts 175°
2026-05-07 18:48 -29.58001 18.66213 41181 ft 488 kts 175°
2026-05-07 18:49 -29.64682 18.67651 41185 ft 488 kts 175°
2026-05-07 18:49 -29.71369 18.69092 41178 ft 488 kts 175°
2026-05-07 18:50 -29.78010 18.70523 41179 ft 488 kts 175°
2026-05-07 18:50 -29.84687 18.71965 41184 ft 488 kts 175°
2026-05-07 18:51 -29.91365 18.73410 41183 ft 488 kts 175°
2026-05-07 18:51 -29.98039 18.74855 41189 ft 488 kts 175°
2026-05-07 18:52 -30.04718 18.76304 41193 ft 488 kts 175°
2026-05-07 18:52 -30.11391 18.77754 41192 ft 488 kts 175°
2026-05-07 18:53 -30.18069 18.79207 41198 ft 489 kts 174°
2026-05-07 18:53 -30.24721 18.80656 41197 ft 489 kts 174°
2026-05-07 18:54 -30.31213 18.82071 41198 ft 489 kts 174°
2026-05-07 18:54 -30.37907 18.83531 41198 ft 489 kts 174°
2026-05-07 18:55 -30.44587 18.84991 41198 ft 488 kts 174°
2026-05-07 18:55 -30.51270 18.86457 41197 ft 489 kts 174°
2026-05-07 18:56 -30.57920 18.87919 41197 ft 489 kts 174°
2026-05-07 18:56 -30.64601 18.89386 41199 ft 489 kts 174°
2026-05-07 18:57 -30.71280 18.90852 41197 ft 489 kts 174°
2026-05-07 18:57 -30.77972 18.92324 41203 ft 489 kts 174°
2026-05-07 18:58 -30.84661 18.93800 41194 ft 489 kts 174°
2026-05-07 18:58 -30.91340 18.95275 41190 ft 489 kts 174°
2026-05-07 18:59 -30.96891 18.96503 41198 ft 488 kts 174°
2026-05-07 18:59 -31.04659 18.98225 41190 ft 488 kts 174°
2026-05-07 19:00 -31.10215 18.99457 41189 ft 488 kts 174°
2026-05-07 19:00 -31.16904 19.00944 41193 ft 489 kts 174°
2026-05-07 19:01 -31.23593 19.02430 41193 ft 488 kts 174°
2026-05-07 19:01 -31.30261 19.03913 41189 ft 488 kts 174°
2026-05-07 19:02 -31.36947 19.05405 41189 ft 488 kts 174°
2026-05-07 19:02 -31.43576 19.06885 41220 ft 488 kts 173°
2026-05-07 19:03 -31.50248 19.08375 41188 ft 488 kts 173°
2026-05-07 19:03 -31.56924 19.09871 41176 ft 489 kts 173°
2026-05-07 19:04 -31.63611 19.11372 41189 ft 488 kts 173°
2026-05-07 19:04 -31.70288 19.12872 41196 ft 489 kts 173°
2026-05-07 19:05 -31.76942 19.14369 41184 ft 489 kts 173°
2026-05-07 19:05 -31.83636 19.15877 41187 ft 489 kts 173°
2026-05-07 19:06 -31.90328 19.17388 41186 ft 489 kts 173°
2026-05-07 19:06 -31.97022 19.18901 40838 ft 488 kts 173°
2026-05-07 19:06 -32.00314 19.19646 40595 ft 488 kts 173°
2026-05-07 19:07 -32.03647 19.20401 40359 ft 488 kts 173°
2026-05-07 19:07 -32.06987 19.21159 40124 ft 488 kts 173°
2026-05-07 19:07 -32.10331 19.21919 39892 ft 488 kts 173°
2026-05-07 19:07 -32.13671 19.22679 39663 ft 488 kts 173°
2026-05-07 19:08 -32.17007 19.23440 39436 ft 488 kts 173°
2026-05-07 19:08 -32.20346 19.24201 39239 ft 488 kts 172°
2026-05-07 19:08 -32.23644 19.24952 39014 ft 489 kts 172°
2026-05-07 19:08 -32.26998 19.25720 38778 ft 489 kts 172°
2026-05-07 19:09 -32.30344 19.26487 38499 ft 489 kts 172°
2026-05-07 19:09 -32.33680 19.27249 38223 ft 489 kts 172°
2026-05-07 19:09 -32.37027 19.28013 37959 ft 489 kts 172°
2026-05-07 19:09 -32.40374 19.28778 37701 ft 489 kts 172°
2026-05-07 19:10 -32.43681 19.29533 37430 ft 490 kts 172°
2026-05-07 19:10 -32.47042 19.30302 37164 ft 490 kts 172°
2026-05-07 19:10 -32.50396 19.31072 36909 ft 490 kts 172°
2026-05-07 19:10 -32.53751 19.31843 36652 ft 490 kts 172°
2026-05-07 19:11 -32.57107 19.32615 36396 ft 490 kts 172°
2026-05-07 19:11 -32.60454 19.33385 36133 ft 491 kts 172°
2026-05-07 19:11 -32.63816 19.34160 35905 ft 491 kts 172°
2026-05-07 19:11 -32.67173 19.34940 35667 ft 491 kts 172°
2026-05-07 19:12 -32.70486 19.35705 35448 ft 491 kts 172°
2026-05-07 19:12 -32.73831 19.36475 35056 ft 487 kts 172°
2026-05-07 19:12 -32.77161 19.37243 34401 ft 485 kts 172°
2026-05-07 19:12 -32.80472 19.38003 33597 ft 485 kts 172°
2026-05-07 19:13 -32.83799 19.38699 32820 ft 483 kts 174°
2026-05-07 19:13 -32.87126 19.39194 32051 ft 480 kts 176°
2026-05-07 19:13 -32.90453 19.39590 31283 ft 479 kts 177°
2026-05-07 19:13 -32.93768 19.39961 30615 ft 476 kts 176°
2026-05-07 19:14 -32.97050 19.40340 30013 ft 472 kts 176°
2026-05-07 19:14 -33.00305 19.40740 29421 ft 465 kts 176°
2026-05-07 19:14 -33.03464 19.41151 28888 ft 459 kts 175°
2026-05-07 19:14 -33.06621 19.41576 28344 ft 453 kts 175°
2026-05-07 19:15 -33.09738 19.42004 27801 ft 448 kts 175°
2026-05-07 19:15 -33.12817 19.42430 27262 ft 442 kts 175°
2026-05-07 19:15 -33.15861 19.42852 26730 ft 437 kts 175°
2026-05-07 19:15 -33.18866 19.43221 26214 ft 430 kts 179°
2026-05-07 19:16 -33.21815 19.43057 25691 ft 421 kts 191°
2026-05-07 19:16 -33.24619 19.42148 25193 ft 414 kts 203°
2026-05-07 19:16 -33.27123 19.40496 24692 ft 408 kts 217°
2026-05-07 19:16 -33.29181 19.38201 24206 ft 403 kts 230°
2026-05-07 19:17 -33.30940 19.35613 23684 ft 399 kts 232°
2026-05-07 19:17 -33.32577 19.32962 23168 ft 394 kts 233°
2026-05-07 19:17 -33.34204 19.30333 22679 ft 392 kts 232°
2026-05-07 19:17 -33.35840 19.27729 22190 ft 390 kts 232°
2026-05-07 19:18 -33.37479 19.25145 21709 ft 389 kts 232°
2026-05-07 19:18 -33.39113 19.22582 21196 ft 386 kts 231°
2026-05-07 19:18 -33.40733 19.20071 20704 ft 384 kts 230°
2026-05-07 19:18 -33.42554 19.17751 20168 ft 381 kts 221°
2026-05-07 19:19 -33.44530 19.15659 19782 ft 374 kts 220°
2026-05-07 19:19 -33.46461 19.13669 19655 ft 356 kts 219°
2026-05-07 19:19 -33.48262 19.11808 19551 ft 328 kts 219°
2026-05-07 19:19 -33.49923 19.10078 19432 ft 303 kts 219°
2026-05-07 19:20 -33.51476 19.08456 19303 ft 293 kts 219°
2026-05-07 19:20 -33.53009 19.06854 19146 ft 292 kts 219°
2026-05-07 19:20 -33.54538 19.05260 19027 ft 292 kts 219°
2026-05-07 19:20 -33.56069 19.03665 18897 ft 291 kts 219°
2026-05-07 19:21 -33.57598 19.02075 18676 ft 292 kts 219°
2026-05-07 19:21 -33.59136 19.00477 18299 ft 290 kts 219°
2026-05-07 19:21 -33.60654 18.98902 17936 ft 288 kts 219°
2026-05-07 19:21 -33.62140 18.97347 17606 ft 286 kts 219°
2026-05-07 19:22 -33.63637 18.95774 17261 ft 285 kts 219°
2026-05-07 19:22 -33.65133 18.94204 16929 ft 284 kts 219°
2026-05-07 19:22 -33.66618 18.92647 16605 ft 283 kts 219°
2026-05-07 19:22 -33.68111 18.91116 16205 ft 281 kts 218°
2026-05-07 19:23 -33.69597 18.89605 15785 ft 280 kts 218°
2026-05-07 19:23 -33.71078 18.88097 15385 ft 279 kts 218°
2026-05-07 19:23 -33.72546 18.86600 14932 ft 272 kts 218°
2026-05-07 19:23 -33.73953 18.85156 14551 ft 261 kts 218°
2026-05-07 19:24 -33.75303 18.83766 14157 ft 252 kts 218°
2026-05-07 19:24 -33.76636 18.82390 13746 ft 252 kts 218°
2026-05-07 19:24 -33.77969 18.81012 13319 ft 253 kts 218°
2026-05-07 19:24 -33.79301 18.79637 12862 ft 253 kts 218°
2026-05-07 19:25 -33.80641 18.78257 12427 ft 253 kts 218°
2026-05-07 19:25 -33.81980 18.76877 11996 ft 254 kts 218°
2026-05-07 19:25 -33.83309 18.75512 11581 ft 254 kts 218°
2026-05-07 19:25 -33.84655 18.74127 11183 ft 255 kts 218°
2026-05-07 19:26 -33.86002 18.72734 10758 ft 255 kts 218°
2026-05-07 19:26 -33.87348 18.71336 10364 ft 255 kts 218°
2026-05-07 19:26 -33.88665 18.69962 9946 ft 246 kts 218°
2026-05-07 19:26 -33.89932 18.68628 9500 ft 238 kts 218°
2026-05-07 19:27 -33.91160 18.67341 9066 ft 230 kts 217°
2026-05-07 19:27 -33.92343 18.66080 8615 ft 224 kts 218°
2026-05-07 19:27 -33.93503 18.64841 8201 ft 221 kts 218°
2026-05-07 19:27 -33.94648 18.63602 7778 ft 220 kts 218°
2026-05-07 19:28 -33.95775 18.62389 7363 ft 219 kts 217°
2026-05-07 19:28 -33.96969 18.61274 6943 ft 216 kts 201°
2026-05-07 19:28 -33.98402 18.60998 6530 ft 208 kts 171°
2026-05-07 19:28 -33.99839 18.61315 6135 ft 212 kts 164°
2026-05-07 19:29 -34.01260 18.61730 5992 ft 208 kts 163°
2026-05-07 19:29 -34.02659 18.62151 5892 ft 206 kts 162°
2026-05-07 19:29 -34.03880 18.62984 5747 ft 202 kts 130°
2026-05-07 19:29 -34.04411 18.64509 5624 ft 203 kts 91°
2026-05-07 19:30 -34.04059 18.66164 5505 ft 211 kts 57°
2026-05-07 19:30 -34.02919 18.67270 5372 ft 217 kts 20°
2026-05-07 19:30 -34.01434 18.67373 5259 ft 221 kts 343°
2026-05-07 19:30 -34.00120 18.66432 5140 ft 222 kts 312°
2026-05-07 19:31 -33.99108 18.65020 5015 ft 224 kts 305°
2026-05-07 19:31 -33.98155 18.63527 4995 ft 225 kts 304°
2026-05-07 19:31 -33.97141 18.62074 4980 ft 229 kts 317°
2026-05-07 19:31 -33.95728 18.61226 4993 ft 229 kts 348°
2026-05-07 19:32 -33.94168 18.61300 4999 ft 224 kts 17°
2026-05-07 19:32 -33.92701 18.61915 4964 ft 223 kts 23°
2026-05-07 19:32 -33.91281 18.62637 4724 ft 221 kts 24°
2026-05-07 19:32 -33.89871 18.63366 4483 ft 220 kts 24°
2026-05-07 19:33 -33.88494 18.64165 4220 ft 219 kts 30°
2026-05-07 19:33 -33.87152 18.65024 4020 ft 217 kts 27°
2026-05-07 19:33 -33.85769 18.65773 3985 ft 219 kts 25°
2026-05-07 19:33 -33.84369 18.66494 3918 ft 218 kts 25°
2026-05-07 19:34 -33.82990 18.67198 3835 ft 210 kts 25°
2026-05-07 19:34 -33.81680 18.67859 3764 ft 198 kts 25°
2026-05-07 19:34 -33.80419 18.68485 3673 ft 196 kts 24°
2026-05-07 19:34 -33.79143 18.69060 3614 ft 197 kts 14°
2026-05-07 19:35 -33.77817 18.68923 3552 ft 196 kts 336°
2026-05-07 19:35 -33.76698 18.67989 3483 ft 199 kts 311°
2026-05-07 19:35 -33.75902 18.66627 3407 ft 199 kts 291°
2026-05-07 19:35 -33.75426 18.65064 3310 ft 200 kts 282°
2026-05-07 19:36 -33.75145 18.63427 3232 ft 200 kts 274°
2026-05-07 19:36 -33.75097 18.61778 3197 ft 195 kts 263°
2026-05-07 19:36 -33.75265 18.60164 3126 ft 192 kts 255°
2026-05-07 19:36 -33.75484 18.58649 3069 ft 178 kts 255°
2026-05-07 19:37 -33.75924 18.57339 3004 ft 168 kts 223°
2026-05-07 19:37 -33.76805 18.56465 2979 ft 163 kts 205°
2026-05-07 19:37 -33.77788 18.55787 3004 ft 163 kts 201°
2026-05-07 19:37 -33.78805 18.55288 2987 ft 150 kts 194°
2026-05-07 19:38 -33.79783 18.55105 2984 ft 137 kts 172°
2026-05-07 19:38 -33.80697 18.55248 2987 ft 131 kts 163°
2026-05-07 19:38 -33.81585 18.55487 2988 ft 131 kts 161°
2026-05-07 19:38 -33.82485 18.55754 2988 ft 135 kts 162°
2026-05-07 19:39 -33.83399 18.56043 2911 ft 138 kts 161°
2026-05-07 19:39 -33.84324 18.56323 2705 ft 136 kts 161°
2026-05-07 19:39 -33.85231 18.56606 2512 ft 134 kts 160°
2026-05-07 19:39 -33.85831 18.56797 2384 ft 135 kts 160°
2026-05-07 19:40 -33.87025 18.57175 2128 ft 134 kts 161°
2026-05-07 19:40 -33.87924 18.57459 1920 ft 134 kts 161°
2026-05-07 19:40 -33.88823 18.57744 1735 ft 133 kts 160°
2026-05-07 19:40 -33.89713 18.58031 1534 ft 134 kts 161°
2026-05-07 19:41 -33.90626 18.58324 1309 ft 137 kts 163°
2026-05-07 19:41 -33.91545 18.58587 1047 ft 134 kts 163°
2026-05-07 19:41 -33.92413 18.58882 844 ft 127 kts 163°
2026-05-07 19:41 -33.93287 18.59164 722 ft 134 kts 162°
2026-05-07 19:42 -33.94184 18.59433 535 ft 131 kts 161°
2026-05-07 19:42 -33.95051 18.59724 383 ft 127 kts 163°
2026-05-07 19:42 -33.95897 18.59982 233 ft 123 kts 164°
2026-05-07 19:42 -33.96706 18.60241 164 ft 113 kts 166°
2026-05-07 19:43 -33.97375 18.60446 158 ft 86 kts 165°
2026-05-07 19:43 -33.97873 18.60604 160 ft 64 kts 165°
2026-05-07 19:43 -33.98244 18.60721 159 ft 41 kts 165°
2026-05-07 19:43 -33.98346 18.60753 160 ft 14 kts 166°
2026-05-07 19:44 -33.98464 18.60789 159 ft 21 kts 166°
2026-05-07 19:44 -33.98607 18.60836 159 ft 22 kts 165°
2026-05-07 19:44 -33.98747 18.60855 161 ft 16 kts 204°
2026-05-07 19:44 -33.98797 18.60746 160 ft 17 kts 250°
2026-05-07 19:45 -33.98762 18.60638 160 ft 16 kts 340°
2026-05-07 19:45 -33.98647 18.60593 160 ft 19 kts 340°
2026-05-07 19:45 -33.98512 18.60533 160 ft 22 kts 339°
2026-05-07 19:45 -33.98358 18.60464 160 ft 25 kts 341°
2026-05-07 19:46 -33.98194 18.60395 160 ft 24 kts 341°
2026-05-07 19:46 -33.98032 18.60325 160 ft 26 kts 340°
2026-05-07 19:46 -33.97858 18.60251 160 ft 18 kts 341°
2026-05-07 19:46 -33.97836 18.60242 160 ft 8 kts 341°
2026-05-07 19:47 -33.97769 18.60214 160 ft 12 kts 340°
2026-05-07 19:47 -33.97671 18.60172 160 ft 17 kts 340°
2026-05-07 19:47 -33.97550 18.60113 160 ft 20 kts 335°
2026-05-07 19:47 -33.97411 18.60052 160 ft 22 kts 344°
2026-05-07 19:48 -33.97252 18.60002 160 ft 25 kts 346°
2026-05-07 19:48 -33.97150 18.59971 160 ft 21 kts 346°
2026-05-07 19:48 -33.97026 18.59941 160 ft 19 kts 346°
2026-05-07 19:48 -33.96888 18.59899 160 ft 22 kts 347°
2026-05-07 19:49 -33.96735 18.59846 160 ft 24 kts 344°
2026-05-07 19:49 -33.96640 18.59797 160 ft 1 kts 302°
2026-05-07 19:49 -33.96637 18.59783 160 ft 7 kts 283°
2026-05-07 19:49 -33.96643 18.59736 160 ft 0 kts 257°
2026-05-07 19:50 -33.96646 18.59722 160 ft 0 kts 257°